                ,  0.290,  0.386,  0.483,  0.580,  0.676,  0.773,  0.869,  0.966,  1.063,  1.159,  1.256,  1.352,  1.449,  1.545,  1.642,  1.739,  1.835,  1.932,  2.028,  2.125,  2.222,  2.318,  2.415,  2.511,  2.608,  2.705,  2.801,  2.898,  2.994,  3.091,  3.188,  3.284,  3.381,  3.477,  3.574,  3.671,  3.767,  3.864,  3.960,  4.057,  4.153,  4.250,  4.347,  4.443,  4.540,  4.636,  4.733,  4.830,  4.926,  5.023,  5.119,  5.216,  5.313,  5.409,  5.506,  5.602,  5.699,  5.796
2000/12/08 00:00,  999.0,    9.9,    9.3,    9.4,    9.0,    8.9,    8.7,    9.0,    8.5,    8.2,    6.2,    5.7,   -0.6,   -0.7,  999.0,  999.0,  999.0,  999.0,  999.0,  999.0,  999.0,  999.0,  999.0,  999.0,  999.0,  999.0,  999.0,  999.0,  999.0,  999.0,  999.0,  999.0,  999.0,  999.0,  999.0,  999.0,  999.0,  999.0,  999.0,  999.0,  999.0,  999.0,  999.0,  999.0,  999.0,  999.0,  999.0,  999.0,  999.0,  999.0,  999.0,  999.0,  999.0,  999.0,  999.0,  999.0,  999.0,  999.0
2000/12/08 00:10,  999.0,    9.9,    5.2,   10.4,   10.9,    9.5,    9.3,    9.5,    9.8,    8.7,    7.0,    7.0,    0.3,  999.0,    0.4,  999.0,  999.0,  999.0,  999.0,  999.0,  999.0,  999.0,  999.0,  999.0,  999.0,  999.0,  999.0,  999.0,  999.0,  999.0,  999.0,  999.0,   32.1,  999.0,  999.0,  999.0,  999.0,  999.0,  999.0,   36.8,   37.4,  999.0,   39.0,   40.1,   40.2,  999.0,  999.0,   41.6,  999.0,   41.8,   41.8,   41.5,   41.4,  999.0,   42.7,   41.3,  999.0,  999.0
2000/12/08 00:20,  999.0,   10.2,   10.3,   11.8,   11.7,    9.5,    9.3,    9.0,    9.5,    8.5,    9.9,    8.1,  999.0,  999.0,  999.0,  999.0,  999.0,  999.0,  999.0,  999.0,  999.0,  999.0,  999.0,  999.0,  999.0,   29.8,  999.0,   31.0,  999.0,   26.6,  999.0,   31.1,   28.6,   36.1,  999.0,   32.5,   32.7,   37.5,   40.0,   36.8,   37.4,   38.6,   36.3,   38.6,   39.0,   42.7,   41.8,   40.4,   42.3,   41.1,  999.0,   41.2,   40.9,   41.5,   41.8,   42.3,   41.4,   41.7
2000/12/08 00:30,  999.0,    9.9,    9.9,   11.0,   10.4,    9.6,    9.5,   10.0,   10.0,    9.2,    8.6,  999.0,  999.0,  999.0,  999.0,   20.4,  999.0,  999.0,  999.0,   22.7,   24.0,  999.0,  999.0,   25.2,   26.9,   26.7,   28.2,   20.6,   29.9,   31.9,   29.5,   23.9,   33.9,   33.1,  999.0,   25.2,   34.3,   19.2,  999.0,  999.0,  999.0,   26.8,   41.5,    0.2,   27.4,   41.2,  999.0,   41.8,   31.6,   21.0,   41.5,   35.5,   41.8,   40.2,   42.2,   42.4,   41.6,   21.7
2000/12/08 00:40,  999.0,   10.5,    9.7,   10.5,   10.7,   10.2,   10.2,   10.1,   10.2,    8.7,  999.0,  999.0,  999.0,   21.3,   22.0,   21.6,   23.5,   23.0,   23.3,   23.9,   24.4,   24.5,   25.4,   26.4,   26.4,   28.1,   28.4,   27.8,   31.4,   30.6,   31.4,   32.6,   34.2,   34.0,   35.5,   36.2,   37.1,   37.0,   36.9,   39.5,   39.2,   41.5,   41.4,   41.6,   42.0,   42.1,   42.0,   41.9,   42.1,   41.9,   41.8,   41.7,   41.5,   41.3,   41.5,   41.8,   41.4,  999.0
2000/12/08 00:50,  999.0,   10.4,   10.7,   11.5,   11.8,   11.2,   10.0,  999.0,  999.0,  999.0,   20.7,  999.0,  999.0,   21.2,   21.1,   21.0,   21.9,   22.8,   23.2,   25.2,  999.0,   25.4,   26.5,   27.2,   27.4,   27.3,   29.7,   31.0,   33.9,   32.8,   33.0,   34.8,   34.5,   35.5,   37.5,   39.4,   40.4,   40.0,  999.0,   42.4,   40.9,   41.6,   41.8,  999.0,  999.0,   41.8,   42.4,   42.2,   42.0,   41.8,   42.4,   41.5,   41.8,   41.7,  999.0,   41.2,   42.4,   42.2
2000/12/08 01:00,  999.0,   10.7,   10.5,   11.5,   11.9,   10.6,   10.2,    9.7,   10.0,  999.0,  999.0,   21.7,   21.5,  999.0,   21.4,   21.4,  999.0,   21.9,   24.3,   24.4,   24.6,   25.6,   26.9,   28.3,   29.7,   30.4,   31.1,   31.5,   33.4,   34.8,   35.5,   36.1,   37.3,   39.0,   39.1,   39.9,   41.3,   41.6,   41.7,   42.2,   42.1,   41.6,   41.9,   42.1,   41.7,   41.8,   42.7,   41.9,   42.0,   41.7,   41.4,   42.5,   41.6,   42.3,   41.8,   42.0,   41.8,   42.2
2000/12/08 01:10,  999.0,   10.4,   10.4,   11.1,   11.7,   11.2,    9.1,    9.6,  999.0,   21.7,  999.0,  999.0,   21.0,   21.2,   22.2,   22.9,   24.6,   25.0,   26.9,   28.1,   27.1,  999.0,   31.1,   29.6,   33.1,   36.1,   32.2,   35.8,   37.4,   34.7,   41.7,   38.5,   39.5,   40.1,   40.4,   40.5,   41.2,   41.3,   41.6,   41.6,   42.1,   42.4,  999.0,  999.0,   42.6,   41.7,   41.5,  999.0,   41.9,   41.4,   42.2,   41.8,   41.7,   41.6,  999.0,   41.8,  999.0,   41.5
2000/12/08 01:20,  999.0,   10.0,   12.2,   11.3,   11.6,   11.1,    8.5,    8.0,  999.0,  999.0,   20.5,   20.0,   19.8,   20.2,   23.1,   24.0,   25.6,  999.0,   36.6,   36.6,   33.3,   38.3,   42.2,   41.7,   38.1,  999.0,   40.9,   42.0,  999.0,   41.9,   41.9,   41.7,   42.6,   41.7,   41.3,   41.3,   41.5,   41.7,   41.6,   42.6,   41.6,   41.6,   41.6,   41.6,   41.7,   41.9,   41.5,   41.5,   42.2,   41.9,   41.9,   41.3,   41.4,   41.9,   41.3,   41.4,   41.9,   41.8
2000/12/08 01:30,  999.0,   10.8,    9.7,   10.7,   11.6,   14.2,   10.0,  999.0,  999.0,  999.0,  999.0,   21.3,   21.3,  999.0,   23.2,   26.0,   22.6,   26.7,  999.0,   31.0,  999.0,   26.5,   32.5,   34.1,   41.9,   36.1,  999.0,   41.7,   41.2,   38.5,   35.3,   41.0,   39.6,   40.4,  999.0,   41.9,   41.4,   41.8,   41.5,   41.4,   41.6,   41.8,   41.7,   42.1,   41.9,  999.0,   41.6,   41.7,   41.9,   41.7,   42.1,   42.1,   41.9,   41.5,   42.0,  999.0,   42.0,   41.9
2000/12/08 01:40,  999.0,    8.0,   10.2,   10.3,   11.6,  999.0,   11.3,   12.5,    8.8,    9.1,    8.4,    8.6,    9.5,    9.7,   12.1,   21.5,   16.2,   22.2,   20.4,   18.0,   18.0,   33.0,   29.0,   37.0,   38.3,   22.8,  999.0,   37.1,   33.7,   41.4,  999.0,   29.1,   42.1,   42.2,   41.9,  999.0,   41.6,   39.4,  999.0,   37.2,   41.9,   40.3,   41.5,   41.5,   41.4,   42.2,   42.1,   39.1,   41.9,  999.0,  999.0,   41.5,   41.8,   41.4,   41.3,   41.9,   37.5,   41.4
2000/12/08 01:50,  999.0,    9.5,   10.0,   10.9,   11.3,   10.9,   10.0,    9.3,    8.9,    8.7,    7.6,    7.1,    2.0,  999.0,   -2.1,  999.0,   14.3,   12.4,  999.0,   23.5,   25.8,   27.1,   27.8,   28.9,  999.0,   30.7,   31.4,   32.6,   33.1,   34.1,  999.0,   35.6,   16.2,   18.5,   38.9,   39.0,   -0.8,   40.6,   42.0,   23.9,   42.3,   -1.0,   -0.5,   41.9,   21.0,   42.2,  999.0,   42.1,   -0.8,   -0.1,   20.6,   20.5,   -1.4,   42.0,   21.0,   13.9,   41.7,   -0.6
2000/12/08 02:00,  999.0,    9.0,    9.5,   10.8,   10.6,   10.1,    9.5,    8.8,    8.3,    8.7,    8.9,    8.5,    7.2,  999.0,  999.0,  999.0,   -9.7,  999.0,   -5.1,    3.2,  -12.3,  999.0,   28.5,   28.5,  999.0,  999.0,   -4.7,  -41.8,   33.8,   34.6,   36.0,  999.0,  999.0,  -23.8,  -27.3,   40.6,   41.5,   20.6,   42.6,   20.5,   10.3,  999.0,  -22.3,   41.6,  999.0,  999.0,  -14.3,    5.6,    7.3,  -25.9,  -42.0,  -40.7,    3.3,   20.3,    9.5,   -7.3,   -0.5,    9.8
2000/12/08 02:10,  999.0,    9.0,    9.2,   10.1,   10.6,   10.5,    8.9,    9.2,    7.7,    8.6,    8.1,    9.3,    6.6,    5.0,    3.8,    0.9,  999.0,  999.0,  999.0,  999.0,  -10.2,  -13.7,  -13.8,  999.0,  999.0,    0.7,    0.6,    0.4,  999.0,  999.0,  999.0,  999.0,  999.0,  999.0,    0.7,  -20.6,  999.0,  999.0,  999.0,  -20.5,  -42.2,   31.6,   33.1,  -41.8,  -41.7,   14.3,  -41.8,  -41.7,  -41.4,  -33.9,  -42.3,  -42.0,    0.1,   19.4,  -21.2,  -41.8,  -42.3,  -41.4
2000/12/08 02:20,  999.0,    7.7,   10.2,    9.6,    9.7,    9.2,    8.9,    7.9,    7.4,    8.4,    7.1,    6.1,    5.9,    5.1,  999.0,  999.0,  999.0,  999.0,  999.0,  999.0,  999.0,  999.0,   13.6,  999.0,  999.0,  999.0,  999.0,  999.0,  999.0,  999.0,  999.0,  999.0,    5.0,  999.0,  999.0,  -18.4,    2.2,  999.0,  999.0,  -20.6,  -41.5,  -19.9,    1.2,  -41.0,  -41.1,    0.3,  -42.1,  -41.5,  -20.8,  -31.3,  -34.5,  -41.7,  -20.7,  -27.4,  -27.4,    0.9,  -41.4,  999.0
2000/12/08 02:30,  999.0,    8.3,    8.9,    9.5,    9.8,    9.9,    8.9,    8.3,    8.3,    8.7,    6.0,    6.1,    6.9,    5.4,    4.8,    3.2,   -5.4,  999.0,  999.0,  999.0,  999.0,  -11.2,  -12.2,  -11.0,  -20.6,  -22.5,  -24.4,  -25.6,  999.0,  999.0,  999.0,  999.0,  -40.9,  -41.9,  -41.8,  -42.1,  -42.4,  -41.2,  -42.5,  -42.2,  -41.8,  -41.9,  -42.0,  -41.9,  -41.2,  -41.6,  -41.5,  -41.7,  -41.6,  999.0,  -41.8,  -41.4,  999.0,  -42.3,  -41.8,  -41.9,  -41.9,  -41.4
2000/12/08 02:40,  999.0,    8.7,    9.5,    9.5,   10.2,    9.8,    8.0,    9.1,    9.1,    8.0,    7.9,    7.1,    4.1,    5.7,    4.4,    6.5,  999.0,    2.5,  999.0,   -5.2,    0.7,   -8.8,   -9.0,  -11.2,  -10.2,  999.0,  999.0,  999.0,  999.0,  999.0,  999.0,  999.0,  999.0,  -42.1,  999.0,  999.0,  -42.2,  -41.4,  999.0,  -41.5,  999.0,  -41.7,  -42.2,  -41.9,  -42.3,  -42.1,  -42.0,  -43.3,  -42.3,  -42.0,  -41.8,  999.0,  -41.9,  -41.9,  -41.8,  -41.4,  -41.4,  -41.6
2000/12/08 02:50,  999.0,    8.9,    7.2,    8.8,    9.2,    8.9,    8.6,    8.7,    8.6,    8.1,    6.6,    4.6,    4.5,    5.1,    6.7,  999.0,   -0.8,   -2.0,   -6.6,   -4.5,  999.0,   -5.7,   -4.8,  -16.2,  -18.4,  999.0,  999.0,  999.0,  999.0,    6.7,    8.1,  999.0,  999.0,  999.0,  999.0,  999.0,  999.0,  -42.0,  999.0,  -41.6,  -42.2,  -42.1,  999.0,  -42.2,  -40.7,  -41.6,  -28.9,  -28.4,  -41.7,  -41.7,  -41.6,  -41.7,  -41.8,  -42.1,  -41.6,  -41.4,  -41.2,  -41.3
2000/12/08 03:00,  999.0,   11.0,   10.5,   10.0,    9.1,    9.2,   10.0,    9.2,    9.4,    9.1,    8.9,    7.4,    4.9,    0.8,    5.4,    1.8,   -0.7,   -3.6,  -10.0,  -12.2,  -16.8,  -19.3,  -21.6,  -25.0,  999.0,  999.0,  -27.7,  999.0,  999.0,  999.0,  999.0,  -42.3,  999.0,  -42.2,  -41.9,  -42.1,  -41.8,  -42.0,  -41.7,  -41.9,  -41.9,  -41.4,  -41.6,  -42.1,  -41.8,  -41.4,  -41.7,  -42.0,  -41.7,  -42.2,  -41.7,  -42.0,  -41.3,  -42.1,  -42.2,  -41.7,  -42.3,  -41.3
2000/12/08 03:10,  999.0,  999.0,    6.6,   11.1,   10.3,    9.8,    9.7,    8.7,    8.8,    9.7,    8.8,    2.2,    3.9,    2.1,    2.1,    0.0,   -1.5,   -0.8,   -5.7,  -14.2,  -11.8,   -9.0,   -5.9,  -23.8,  -26.6,  -27.7,  999.0,  999.0,    2.0,    5.7,  -24.6,  -29.8,  999.0,  -39.5,  -41.6,  -41.6,  -41.8,  -42.0,  999.0,  -41.7,  -41.7,  -42.4,  -41.4,  -42.7,  -42.0,  -41.2,  -41.8,  -41.4,  -41.6,  -41.1,  -42.0,  -41.2,  -42.0,  -41.7,  -41.6,  -41.3,  -41.8,  -41.4
2000/12/08 03:20,  999.0,   11.9,   10.2,    9.9,   11.4,   10.1,    9.6,   11.5,    7.7,    7.7,    8.6,    7.7,    3.3,    2.6,    1.0,   -1.7,   -0.3,   -1.3,   -3.4,  -11.3,   -7.7,  -19.1,  999.0,  -26.7,  -26.6,  -26.4,  -24.0,  999.0,  999.0,  999.0,  999.0,  999.0,  999.0,  999.0,  -42.0,  999.0,  -42.1,  999.0,  -42.4,  -42.0,  999.0,  -41.8,  -41.8,  -41.9,  -41.2,  -41.6,  -41.4,  -41.8,  -42.0,  -41.8,  -40.9,  -40.9,  -41.1,  -41.5,  -41.6,  999.0,  -42.2,  -42.4
2000/12/08 03:30,  999.0,  999.0,   10.6,    9.3,   10.9,    9.9,    8.4,    5.1,    7.1,    9.1,    9.3,    9.6,    9.6,    4.4,    1.8,   -0.1,   -2.4,   -5.9,   -6.0,  -13.8,  -20.7,  -21.3,  -24.1,  999.0,  -23.5,  -26.3,  -25.9,  999.0,  999.0,  999.0,  999.0,  -41.8,  999.0,  -41.5,  -41.4,  999.0,  -42.0,  -42.0,  999.0,  999.0,  -41.6,  -41.6,  -42.1,  -41.5,  -42.0,  -41.9,  999.0,  -42.3,  -42.0,  -41.7,  -41.6,  -41.4,  999.0,  -42.1,  -41.8,  -41.8,  -41.4,  999.0
2000/12/08 03:40,  999.0,    8.7,    5.8,   10.8,    8.0,  999.0,    7.0,    5.8,    6.1,    4.7,    7.3,    5.9,    4.8,    7.1,    3.0,    3.5,   -2.9,   -4.5,  -10.0,   -9.6,  -13.4,  -17.1,  -15.0,  -17.5,  -26.7,  -28.7,   -8.4,   -8.5,  999.0,  -16.1,  999.0,  -29.1,  -41.6,  -41.8,  -41.8,  -36.3,  -35.0,  -37.6,  -35.8,  -38.6,  -41.0,  -38.2,  -38.4,  -39.7,  -40.2,  -40.0,  -41.7,  -41.5,  -42.1,  -41.7,  -42.2,  -41.5,  -41.7,  -42.1,  -41.4,  -41.7,  -42.2,  -41.3
2000/12/08 03:50,  999.0,  999.0,  999.0,    9.1,   10.8,   14.1,   12.9,    9.8,    8.2,    8.3,    8.6,    7.6,    4.7,    1.3,   -1.4,   -4.5,   -5.4,   -8.3,  -10.4,  -13.0,  -15.9,  -15.6,  999.0,  -24.5,  999.0,  -31.1,  999.0,  999.0,  999.0,  999.0,  999.0,  999.0,  -42.0,  -42.1,  -41.6,  -42.3,  -41.8,  -41.7,  999.0,  -42.6,  -41.5,  -43.1,  -41.8,  -42.0,  999.0,  -41.5,  999.0,  -41.5,  -42.3,  -42.1,  -41.4,  -42.0,  -41.5,  -42.0,  -41.7,  -41.4,  -41.4,  -41.9
2000/12/08 04:00,  999.0,   19.5,    9.3,   11.3,    8.2,  999.0,    8.4,    4.7,    6.6,    6.8,    7.0,    5.4,    3.4,    0.8,  999.0,   -4.4,   -1.7,   -1.9,    0.8,   -1.3,   -0.5,   -1.6,  -13.9,  -26.0,  999.0,  -29.4,  -27.1,  999.0,  999.0,  999.0,  -41.6,  -42.1,  -42.1,  -42.1,  -41.9,  -41.8,  -20.6,  -42.0,  -42.2,  999.0,  -41.9,  -42.1,  -41.9,  -42.2,  -41.4,  999.0,  -42.1,  -42.2,  -41.2,  -41.5,  -41.4,  -41.4,  -41.7,  -41.4,  -41.8,  999.0,  -42.1,  -41.5
2000/12/08 04:10,  999.0,  999.0,  999.0,    7.8,    9.4,    4.7,  999.0,  999.0,    1.3,    1.9,    0.3,   -2.4,   -0.6,    1.0,   -4.2,   -6.0,   -6.7,  -10.3,  -15.2,  -17.0,  -17.9,  -10.6,  -13.3,  -17.1,  -15.4,  999.0,  999.0,  999.0,  999.0,  999.0,  999.0,  -41.4,  999.0,  999.0,  -41.6,  999.0,  -41.8,  999.0,  -42.4,  999.0,  -42.3,  -41.4,  999.0,  -41.8,  -42.2,  -42.0,  -42.5,  -41.4,  -43.0,  -41.7,  -42.1,  -42.6,  -42.7,  999.0,  -42.4,  -41.9,  999.0,  -42.1
2000/12/08 04:20,  999.0,  999.0,  999.0,    3.8,    5.8,   -1.5,    0.6,    3.9,    2.3,    0.3,    0.6,    1.0,    0.5,   -0.6,   -0.6,   -3.0,   -3.6,   -8.2,   -7.9,  -10.1,  -13.9,  -14.6,  -16.1,  -18.6,  -18.5,  -26.9,  -28.9,  999.0,  999.0,  999.0,  -15.6,  999.0,  999.0,  999.0,  999.0,  999.0,  999.0,  999.0,  999.0,  999.0,  999.0,  -41.6,  999.0,  999.0,  999.0,  999.0,  999.0,  999.0,  -42.3,  -42.1,  -42.1,  999.0,  999.0,  999.0,  999.0,  999.0,  -41.8,  999.0
2000/12/08 04:30,  999.0,  999.0,    3.7,    5.7,    5.6,    4.4,    1.0,    0.9,   -1.1,   -0.3,   -0.5,    0.9,    0.5,   -1.4,    0.9,   -0.9,   -2.8,   -3.3,   -2.6,   -4.7,    0.5,    0.2,   -4.0,   -5.4,   -3.1,  -11.0,  -27.9,  999.0,  999.0,  999.0,  999.0,  999.0,  999.0,  999.0,  999.0,  999.0,  999.0,  999.0,  999.0,  999.0,  999.0,  999.0,  999.0,  999.0,  999.0,  999.0,  999.0,  999.0,  999.0,  999.0,  999.0,  999.0,  999.0,  999.0,  999.0,  999.0,  999.0,  999.0
2000/12/08 04:40,  999.0,    3.8,    7.6,    5.9,    4.1,    2.1,    3.1,    2.0,    1.0,   -1.4,   -1.1,   -0.0,    2.3,   -0.8,    2.0,    1.1,    0.1,   -2.6,   -4.7,   -3.5,   -3.4,   -3.2,   -1.9,    0.9,   -6.0,   -5.1,  999.0,  999.0,  999.0,  999.0,  999.0,  999.0,  999.0,  999.0,  999.0,  999.0,  999.0,  999.0,  999.0,  999.0,  999.0,  999.0,  999.0,  999.0,  999.0,  999.0,  999.0,  999.0,  999.0,  999.0,  999.0,  999.0,  999.0,  999.0,  999.0,  999.0,  999.0,  999.0
2000/12/08 04:50,  999.0,   -2.9,   -1.7,   -2.1,    2.8,   -3.8,   -9.9,   -0.2,   -3.4,   -0.1,   -0.8,   -1.5,    1.7,    1.0,   -1.6,   -1.6,   -0.7,   -1.1,   -2.3,   -2.4,   -4.5,   -2.6,   -1.9,   -3.7,   -5.2,  999.0,  999.0,  999.0,  999.0,  999.0,    0.8,  999.0,  999.0,  999.0,  999.0,  999.0,  999.0,  999.0,  999.0,  999.0,  999.0,  999.0,  999.0,  999.0,  999.0,  999.0,  999.0,  999.0,  999.0,  999.0,  999.0,  999.0,  999.0,  999.0,  999.0,  999.0,  999.0,  999.0
2000/12/08 05:00,  999.0,    9.6,  999.0,    0.0,   -8.4,  999.0,    3.2,   -0.7,   -3.0,   -1.1,    1.2,   -2.8,   -2.3,   -1.5,   -4.8,   -3.1,   -1.9,   -0.8,    5.7,    0.2,   -2.5,   -0.8,   -1.0,   -4.9,  999.0,  -14.6,  999.0,  999.0,  999.0,  999.0,  999.0,  999.0,  999.0,  999.0,  999.0,  999.0,  999.0,  999.0,  999.0,  999.0,  999.0,  999.0,  999.0,  999.0,  999.0,  999.0,  999.0,  999.0,  999.0,  999.0,  999.0,  999.0,  999.0,  999.0,  999.0,  999.0,  999.0,  999.0
2000/12/08 05:10,  999.0,    0.9,    6.5,    0.4,    4.0,    3.4,    0.0,    6.3,   -1.8,    3.8,    1.8,    2.4,   -2.3,   -2.8,   -2.9,   -1.2,   -1.9,  999.0,   -1.6,  999.0,    0.9,    0.5,  999.0,  999.0,  999.0,  999.0,  999.0,  999.0,  999.0,  999.0,  999.0,  999.0,  999.0,  999.0,  999.0,  999.0,  999.0,  999.0,  999.0,  999.0,  999.0,  999.0,  999.0,  999.0,  999.0,  999.0,  999.0,  999.0,  999.0,  999.0,  999.0,  999.0,  999.0,  999.0,  999.0,  999.0,  999.0,  999.0
2000/12/08 05:20,  999.0,    4.3,    0.2,   10.5,  999.0,    4.5,    4.7,  999.0,    8.0,    6.5,    5.4,    2.6,   -7.0,  -22.6,   -6.7,    8.5,    6.1,    7.8,  999.0,  999.0,  999.0,  999.0,  999.0,  999.0,  999.0,  999.0,  999.0,  999.0,  999.0,  999.0,  999.0,  999.0,  999.0,  999.0,  999.0,  999.0,  999.0,  999.0,  999.0,  999.0,  999.0,  999.0,  999.0,  999.0,  999.0,  999.0,  999.0,  999.0,  999.0,  999.0,  999.0,  999.0,  999.0,  999.0,  999.0,  999.0,  999.0,  999.0
2000/12/08 05:30,  999.0,  999.0,  999.0,    4.9,    6.4,   10.6,   10.5,  999.0,    7.6,    8.2,    7.3,    5.1,    7.9,  999.0,  999.0,    5.8,    6.0,    5.9,  999.0,    7.6,    7.6,  999.0,  999.0,  999.0,  999.0,   14.5,  999.0,  999.0,  999.0,  999.0,  999.0,   20.3,  999.0,   -4.1,   -1.2,  999.0,  999.0,   -1.3,  999.0,  999.0,  999.0,  999.0,  999.0,  999.0,   -0.3,  999.0,   -0.2,  999.0,    0.6,    1.3,    1.4,  999.0,   -0.4,   -0.3,  999.0,  999.0,  999.0,   -0.3
2000/12/08 05:40,  999.0,  999.0,  999.0,    6.0,  999.0,    1.5,    8.7,    7.7,   -6.8,    0.4,   -7.4,    7.2,    5.8,    9.0,    4.3,    6.3,    5.9,    6.7,  999.0,    8.3,  999.0,    6.3,    9.6,  999.0,  999.0,  999.0,  999.0,  999.0,  999.0,  999.0,   19.0,   18.3,  999.0,  999.0,  999.0,  999.0,  999.0,  999.0,  999.0,  999.0,  999.0,  999.0,   28.6,  999.0,  999.0,  999.0,  999.0,  999.0,  999.0,  999.0,  999.0,  999.0,  999.0,  999.0,  999.0,  999.0,  999.0,  999.0
2000/12/08 05:50,  999.0,    8.0,    7.7,   10.1,    9.8,    7.9,    7.7,    7.4,    6.3,    4.9,    2.1,    7.4,  999.0,  999.0,  999.0,    5.9,    6.5,    9.4,  999.0,  999.0,    6.1,    8.9,    9.9,    9.5,  999.0,  999.0,  999.0,  999.0,  999.0,   14.3,   15.7,  999.0,  999.0,  999.0,  999.0,  999.0,   17.1,  999.0,  999.0,  999.0,  999.0,  999.0,  999.0,  999.0,  999.0,  999.0,   28.0,  999.0,  999.0,  999.0,  999.0,   28.3,  999.0,  999.0,   28.6,   28.1,  999.0,  999.0
2000/12/08 06:00,  999.0,    7.9,    8.9,    9.9,    9.7,    8.3,    7.6,    6.6,    6.7,    5.7,    6.5,    4.9,    5.5,    5.1,  999.0,  999.0,    6.1,    5.9,    6.0,  999.0,    8.0,    8.1,    9.1,    9.5,  999.0,  999.0,  999.0,  999.0,  999.0,   17.3,   16.6,  999.0,   10.8,  999.0,    9.0,  999.0,  999.0,  999.0,  999.0,   -0.3,   -0.3,   -0.6,   -1.1,   -0.4,   -0.6,   -0.5,   -0.7,   -0.1,   -0.6,   -1.0,   -0.9,  999.0,   -0.6,   -1.0,  999.0,   -1.1,   -0.3,   -0.7
2000/12/08 06:10,  999.0,    7.8,   10.1,   11.7,  999.0,    9.0,    7.3,    7.3,    3.5,    5.5,    5.8,    5.6,  999.0,    2.5,    3.3,    3.1,    6.3,    6.5,  999.0,  999.0,  999.0,    6.5,    7.8,   11.2,    9.8,   12.5,  999.0,   13.5,  999.0,   11.9,   12.6,  999.0,  999.0,  999.0,  999.0,  999.0,  999.0,  999.0,  999.0,  -11.6,   -0.7,   -1.0,   -0.7,   -8.6,   -1.0,  999.0,   -1.0,   -1.0,  -26.0,   -0.7,   -0.5,   -0.2,  999.0,  999.0,   -0.5,   -1.3,   -1.5,   -1.3
2000/12/08 06:20,  999.0,    8.6,    8.9,   12.0,   10.5,    8.9,    7.5,    7.1,    6.7,    6.1,    5.2,    5.5,    4.7,  999.0,    2.8,  999.0,  999.0,    5.4,    5.5,    5.1,  999.0,    5.1,    5.8,    6.8,    8.1,   10.6,  999.0,  999.0,   10.8,   11.6,  999.0,  999.0,  999.0,  999.0,  999.0,    7.3,  999.0,  999.0,  999.0,   -0.6,   -0.9,   -0.5,   -1.2,   -0.5,   -1.0,   -0.8,   -0.5,   -0.7,   -0.8,   -0.9,   -0.5,   -0.9,   -0.8,   -1.2,   -0.8,    0.2,   -0.6,   -0.8
2000/12/08 06:30,  999.0,    9.6,    9.8,   10.4,    8.0,   10.3,    9.7,    7.8,    6.3,    6.3,    5.4,    5.3,    6.1,    3.8,    3.3,    5.2,    5.1,    4.9,    5.2,    5.5,    4.6,    5.1,    5.3,    6.2,    6.2,  999.0,  999.0,  999.0,  999.0,  999.0,  999.0,   10.0,  999.0,   37.8,  999.0,   40.0,  999.0,  999.0,  999.0,   20.9,   41.4,   42.0,    0.4,   -0.3,    1.9,   -1.1,   -4.7,   -0.7,  -21.5,   -1.1,   -0.3,    3.2,   -3.1,  -11.0,   -0.5,    2.8,  -21.7,    9.4
2000/12/08 06:40,  999.0,    8.9,    9.8,   10.1,   11.3,   10.2,    8.8,    7.5,    5.6,    4.7,    4.8,    5.4,    5.9,    4.4,    4.6,    4.9,    4.7,    4.8,    5.6,  999.0,    5.0,    5.4,    5.5,    6.5,    6.7,  999.0,  999.0,  999.0,   12.3,   12.6,  999.0,  999.0,  999.0,  999.0,  999.0,  999.0,  999.0,  999.0,  999.0,   -0.9,  999.0,  999.0,    1.9,   -1.2,   -1.2,   -1.7,   -0.6,   -0.4,   -0.8,   -0.9,   -0.7,   -0.4,   -0.4,  999.0,   -0.8,   -0.8,   -1.0,   -0.7
2000/12/08 06:50,  999.0,   10.1,   10.3,   12.2,   10.6,   10.4,    8.9,    7.3,    4.5,    4.9,    5.9,    6.9,    6.4,    5.3,    4.5,    4.7,    5.9,    5.1,  999.0,  999.0,    4.2,    4.8,    5.1,    8.3,  999.0,  999.0,  999.0,  999.0,  999.0,  999.0,  999.0,  999.0,  999.0,  999.0,  999.0,  999.0,  999.0,  999.0,  999.0,    5.4,  999.0,   -0.4,   -0.8,   -0.9,   -1.0,   -0.8,   -0.9,   -5.5,   -1.4,   -1.9,   -1.3,   -0.9,   -4.0,   -1.0,   -0.7,   -1.0,  -21.2,  999.0
2000/12/08 07:00,  999.0,  999.0,    9.5,    9.9,   11.5,    9.6,    7.7,    6.8,    4.9,    4.5,    3.7,    5.0,    7.0,    5.3,    5.8,    4.7,    5.8,  999.0,  999.0,    4.2,    5.3,    5.5,    7.0,   10.5,  999.0,  999.0,   12.6,  999.0,   12.9,   13.5,  999.0,  999.0,  999.0,  999.0,  999.0,  999.0,  999.0,   -0.3,   -0.4,  999.0,  999.0,   -0.3,   -0.5,   -0.7,   -1.1,   -1.3,   -0.9,   -0.9,   -1.1,   -0.7,   -0.5,   -0.3,   -0.8,   -1.3,   -0.8,   -0.3,   -0.3,   -0.8
2000/12/08 07:10,  999.0,    5.9,    7.8,  999.0,   10.5,    8.2,    7.2,    6.6,    5.1,    4.7,    4.6,    5.5,    5.2,    5.0,    4.6,    4.5,    5.7,    4.4,  999.0,    6.7,    7.2,    7.7,    8.4,   11.7,  999.0,  999.0,  999.0,  999.0,  999.0,  999.0,  999.0,  999.0,  999.0,  999.0,  999.0,    1.3,  999.0,  999.0,  999.0,   -0.7,   -0.6,   -0.4,   -1.1,   -0.6,   -0.5,   -0.6,   -0.7,   -0.6,   -0.9,   -0.5,   -0.1,   -0.7,   -0.6,   -1.1,   -0.5,  999.0,   -0.3,   -0.7
2000/12/08 07:20,  999.0,    3.6,    4.3,  999.0,  999.0,   -0.3,    8.7,    6.8,    5.6,    4.8,    4.1,    3.6,    3.9,    4.4,    3.7,    4.5,    5.4,    6.8,    7.3,    5.4,    6.2,    6.6,    7.2,    8.1,  999.0,  999.0,  999.0,  999.0,   14.0,  999.0,  999.0,   12.3,  999.0,  999.0,   -3.3,   -2.1,   -1.3,   -1.6,   -0.8,   -0.8,   -0.7,   -1.0,   -0.9,   -0.6,   -0.2,   -0.2,   -0.5,   -0.9,   -0.9,   -0.4,   -0.6,   -1.4,   -0.8,   -0.7,   -0.5,   -0.6,   -0.9,   -0.8
2000/12/08 07:30,  999.0,    2.3,    0.6,    0.4,    0.5,    0.7,    2.2,  999.0,    6.5,    5.7,    4.4,    4.7,  999.0,    6.7,    4.6,    5.4,    7.0,    9.2,  999.0,    8.4,    8.5,    9.8,   11.1,   13.3,   14.5,   11.1,  999.0,  999.0,   16.9,   21.6,  999.0,  999.0,  999.0,  999.0,  999.0,  999.0,   -0.6,  999.0,   -0.9,   -0.5,   -0.6,   -0.6,   -0.8,   -1.0,   -0.9,   -0.9,   -0.5,   -0.5,   -0.7,   -0.8,   -0.8,   -1.0,   -0.4,   -0.4,   -0.4,   -1.1,   -1.0,   -1.0
2000/12/08 07:40,  999.0,    4.4,  999.0,    0.9,    0.1,    0.1,  999.0,  999.0,    6.3,    4.4,    3.9,    3.7,    5.3,    4.5,  999.0,    5.7,    3.4,  999.0,  999.0,    7.8,    9.7,   11.8,   12.5,   14.4,   16.6,  999.0,  999.0,  999.0,   22.3,  999.0,   12.6,  999.0,  999.0,  999.0,  999.0,  999.0,   -0.8,   -0.7,   -0.7,   -0.6,   -0.6,   -1.2,   -0.8,   -1.0,   -0.5,   -0.2,   -0.9,   -0.5,   -0.9,   -0.4,   -0.5,   -0.5,   -0.6,   -0.7,   -0.8,   -0.7,   -1.0,   -0.9
2000/12/08 07:50,  999.0,    6.9,  999.0,  999.0,   -0.2,   -0.2,  999.0,  999.0,    8.9,    6.7,    5.1,    4.5,    5.9,    5.2,    3.1,    3.4,  999.0,    6.0,  999.0,    6.5,    8.5,   10.5,   10.8,   13.8,   15.5,  999.0,  999.0,   19.7,   22.0,   21.0,  999.0,  999.0,  999.0,   -0.9,   -0.8,   -0.7,   -0.8,   -0.5,   -0.8,   -0.8,   -0.8,   -1.0,   -0.8,   -0.7,   -0.7,   -0.7,  999.0,   -0.5,   -1.1,   -0.5,   -0.6,   -0.8,   -0.6,   -1.1,   -0.2,   -0.3,   -0.6,   -0.3
2000/12/08 08:00,  999.0,    6.6,    8.0,    8.9,    7.7,  999.0,    8.0,  999.0,  999.0,    7.3,    5.7,    5.0,    4.4,    5.1,   13.0,    4.8,    8.1,    6.7,   20.6,    5.9,    7.3,    8.5,  999.0,   12.9,   10.4,  999.0,  999.0,  999.0,    2.5,  999.0,  999.0,  999.0,   27.6,   -0.7,  999.0,   -0.7,   20.4,   20.6,   20.7,   -0.8,   13.6,   10.4,   -8.8,   -7.6,    9.9,   -0.2,   -7.5,   -1.3,   -6.4,  -13.2,    0.2,   -8.2,   -8.1,   -0.3,    6.8,   -1.1,    9.8,    4.9
2000/12/08 08:10,  999.0,    4.5,    7.4,    8.5,  999.0,  999.0,  999.0,    8.7,    7.1,    7.2,    6.2,    5.2,    3.7,    4.6,    5.0,    4.4,    4.9,    4.4,    4.6,    4.7,    6.0,  999.0,  999.0,  999.0,   10.7,   12.9,  999.0,  999.0,  999.0,  999.0,  999.0,  999.0,  999.0,   -0.9,   -0.6,   -0.8,   -1.0,   -1.0,   -0.5,   -0.6,   -0.9,   -0.8,   -0.4,   -0.8,   -0.9,   -0.8,   -1.0,   -0.6,  999.0,   -0.9,   -0.8,   -0.7,   -0.6,   -0.1,   -0.6,   -1.1,   -0.4,   -0.6
2000/12/08 08:20,  999.0,    6.1,    7.2,    8.7,  999.0,  999.0,    0.1,  999.0,    5.0,    6.5,    6.1,    5.2,    2.8,    4.3,    5.7,    4.7,    5.2,    4.2,    4.7,    6.2,  999.0,  999.0,  999.0,  999.0,  999.0,  999.0,  999.0,  999.0,  999.0,  999.0,  999.0,  999.0,  999.0,  999.0,   -0.7,   -0.5,   -0.6,   -0.6,   -0.6,   -0.6,   -0.7,   -1.3,   -0.7,   -0.8,   -0.6,   -0.6,    0.3,   -0.5,   -0.6,   -0.7,   -0.8,   -0.8,   -0.5,   -1.0,   -1.1,   -0.4,   -0.9,   -0.3
2000/12/08 08:30,  999.0,    5.0,    6.4,    6.5,  999.0,  999.0,    0.0,   -0.2,    4.2,    6.0,    3.2,    4.4,    4.7,    5.4,    4.7,    4.7,    6.0,    6.2,    8.3,   10.6,  999.0,  999.0,  999.0,  999.0,  999.0,  999.0,  999.0,  999.0,  999.0,  999.0,  999.0,  999.0,   -1.2,   -1.2,   -1.0,   -0.8,   -0.6,   -0.6,   -0.7,   -0.8,   -0.8,   -0.7,   -0.5,   -0.7,   -0.9,   -0.6,   -0.5,   -0.9,   -0.7,   -0.6,   -0.7,   -0.5,   -0.9,   -0.4,   -0.2,   -0.6,   -0.8,   -0.9
2000/12/08 08:40,  999.0,  999.0,    3.0,   13.7,  999.0,   -0.4,    6.2,    5.8,   11.0,   21.0,   -0.1,    4.4,    2.7,    2.6,    3.7,    6.8,    4.4,   10.2,   10.5,  999.0,  999.0,   27.7,   29.4,  999.0,   33.0,   34.5,   35.7,   38.0,   40.0,   42.8,   23.9,  999.0,   -4.2,  -16.3,  -14.6,   -6.9,  -18.2,  -12.9,    4.2,   -5.5,   -8.8,  -10.7,   -5.9,   -7.5,   -0.6,    9.2,   13.3,   20.9,   -2.4,   -1.8,   -7.5,  -21.2,   -1.0,   -2.6,  -41.6,  -21.0,  -14.7,  -27.5
2000/12/08 08:50,   41.9,  999.0,  999.0,  999.0,   23.6,    8.2,    5.3,    9.0,   20.7,   21.8,   21.7,  999.0,    6.3,    4.5,    4.1,    4.4,    4.2,    2.4,    3.0,    4.3,    5.5,  999.0,  999.0,    9.5,   11.4,  999.0,  999.0,   18.2,   -1.1,   -0.4,   20.1,   16.6,   19.8,    9.9,   42.5,   20.6,   -0.8,    9.7,   -0.8,   13.4,   13.5,   -0.6,    6.3,   -0.5,   -0.8,   -1.0,    6.3,   13.6,    6.6,   13.8,   13.7,   -0.8,   20.4,    6.0,   -0.7,    5.9,    9.9,    6.0
2000/12/08 09:00,   38.8,    4.6,    2.0,    3.4,    4.8,   -1.8,   -1.0,    7.7,    3.0,  999.0,    5.4,  999.0,  999.0,    2.6,    2.7,    2.3,    2.7,    1.3,    3.6,    4.6,   19.2,  -16.4,  999.0,    8.5,   14.0,  999.0,  999.0,  999.0,   41.8,   41.9,  999.0,   41.6,   20.7,   13.6,    6.4,    6.5,   20.9,   -9.3,    0.1,  -21.2,    2.2,   -0.4,   16.4,    6.4,   10.0,   -0.7,   -0.9,   -1.2,   -1.4,   -0.9,   -0.9,   -0.7,   -0.8,   -1.0,   -0.5,   -0.5,   -0.5,   -0.6
2000/12/08 09:10,  -11.4,   -9.8,   -6.0,    2.0,    4.0,    6.0,    7.0,    0.2,    1.0,  999.0,    6.8,    6.7,    7.7,    1.7,    2.1,    2.0,    2.9,   -1.9,   -6.9,  -17.8,  -11.5,  999.0,    2.5,   -4.6,    8.5,    0.2,    0.7,    0.6,    0.8,    0.5,    0.9,    0.7,  -21.1,    0.6,  -42.1,  -21.0,  -20.8,  -10.7,  -21.1,  -20.7,  -21.2,  -15.8,  -23.8,  -10.0,  -20.7,  -20.8,  -30.5,  -20.7,  -27.9,  -33.4,  -33.7,  -39.6,  -23.9,  -42.2,  -41.7,  -41.9,  -41.7,  -42.0
2000/12/08 09:20,  -10.5,    0.5,  999.0,    0.5,    2.9,    5.3,    6.7,    6.5,    5.7,    5.6,    2.0,    3.6,    4.7,    4.4,    4.8,    4.8,  999.0,    3.1,    6.1,  999.0,   22.8,   22.9,   14.2,   13.6,   11.0,    6.5,   14.3,    0.9,    1.0,    0.8,    5.4,    3.4,    8.0,   14.9,    0.9,    0.6,   14.4,   14.2,    0.7,   14.3,   14.3,    1.2,   14.2,   14.3,    0.6,  999.0,    0.8,   19.7,   16.2,    5.9,    1.1,    1.1,    0.6,    1.4,    0.6,   -0.2,    0.8,  999.0
2000/12/08 09:30,   -0.1,   -1.9,    2.4,    2.5,    2.2,    4.3,    5.4,    6.7,    6.8,    6.6,   -0.2,    4.0,    5.7,    4.6,    4.7,    5.1,  999.0,    4.1,   10.3,  999.0,  999.0,  999.0,   23.3,   14.4,    2.9,    0.2,   28.1,   27.9,   21.0,   21.4,   32.5,   21.5,   10.4,   18.4,   16.2,    0.6,   14.0,   23.3,   25.5,    7.9,   16.7,   10.6,   11.2,    0.3,    6.6,    1.0,    0.9,    1.1,    0.8,    6.5,    8.7,   11.0,   10.9,  999.0,  999.0,    0.7,    1.2,   22.7
2000/12/08 09:40,   10.1,    1.2,    2.7,    3.2,    1.0,    4.0,    4.6,    8.0,    8.6,    7.9,    6.8,    6.6,    7.7,    5.8,    4.1,    4.6,   -2.5,    4.2,    1.9,   10.4,   10.5,    7.9,    1.2,   -0.6,    2.3,    5.3,    5.6,  999.0,    4.8,    1.7,    0.8,    0.8,    0.9,    0.6,    0.5,    0.4,    0.8,  999.0,    0.7,    0.7,    0.8,    0.3,    1.1,    1.3,    0.5,    0.6,    0.5,    0.9,    0.6,    0.8,  999.0,    0.9,    0.8,  999.0,    1.1,   -9.8,    0.5,  -20.5
2000/12/08 09:50,    0.7,  999.0,   -0.7,    0.9,    5.7,    4.5,    5.7,    5.7,    6.1,    7.4,    5.8,    6.0,    6.2,    5.7,    5.4,    3.5,    4.6,    6.7,    9.9,   13.0,   17.9,   16.2,   17.0,   15.4,    7.9,    8.6,    6.1,    4.5,    4.1,    0.3,    0.5,    0.4,    0.5,    0.1,    0.6,    1.0,    0.6,    1.0,    0.9,    1.0,   14.5,    0.5,   14.6,    1.0,    1.3,   14.6,   14.4,   14.3,   21.3,   14.5,    0.6,    1.0,    0.6,  999.0,    0.8,    0.7,    1.2,    0.6
2000/12/08 10:00,   -9.7,  -10.2,   -4.1,    0.7,    2.5,    2.6,    6.1,    3.8,    6.0,    6.4,    6.7,    7.5,    6.4,    4.5,    4.6,    4.3,    1.7,    2.0,   -1.4,   -3.9,  -13.3,   12.2,    2.7,  999.0,  999.0,  999.0,   10.6,    1.0,    7.6,    5.5,    3.6,    1.2,   11.6,   13.5,    7.6,    2.9,    5.4,   12.1,   12.6,    0.9,    1.0,    4.4,    5.8,    4.6,    8.7,   13.5,    0.6,   12.5,    0.6,    1.0,   17.5,    2.2,   10.7,  999.0,   21.3,    0.8,   11.2,   41.1
2000/12/08 10:10,   -9.6,    0.9,    2.8,    1.6,    3.0,    2.9,    4.9,    6.9,    7.2,    7.3,    6.8,    7.5,    6.8,    5.1,    4.1,    3.9,    1.4,   -1.8,   -4.2,   -3.5,   -8.4,  -10.7,   -8.6,  999.0,    4.2,    1.1,    0.9,    1.2,    7.8,   -8.9,  -11.4,    0.6,    2.6,  -11.9,   -6.4,    5.5,   -6.3,    0.9,    3.4,    0.6,    0.7,    4.2,   -7.2,   14.6,    0.1,  -15.3,   -4.4,   -7.6,    5.4,  999.0,  -16.2,   -0.9,    9.6,  -42.3,  -11.7,   21.3,   12.5,   28.6
2000/12/08 10:20,    7.5,   -1.8,    1.9,    1.9,    4.5,    4.3,    4.8,    5.1,    4.6,    5.9,    6.3,    6.1,    5.7,    3.5,   -0.5,   -3.1,   -3.5,   -4.8,   -4.5,   -2.6,   -6.7,   -0.0,   -3.0,  -16.2,    2.5,   10.8,   10.7,  999.0,    1.0,    1.0,  -20.8,  -13.6,    0.5,  -13.5,    0.8,  -13.5,  -20.8,  -20.8,  -20.7,  -42.1,  -20.9,  -20.7,  -21.0,  -13.6,  -41.7,  -13.5,    0.5,  -13.3,  -20.8,  -20.7,  -41.8,  -42.2,  -41.6,  -41.8,  -41.7,  -41.3,  -42.1,  -42.2
2000/12/08 10:30,  999.0,  999.0,  999.0,    3.3,    2.9,    3.1,    3.6,    3.4,    3.8,  999.0,    1.1,    7.5,    7.1,    5.5,    5.0,    4.7,    5.8,    6.1,    6.4,   10.0,    9.2,    4.5,   21.8,   11.4,  999.0,    0.9,    6.6,    2.4,    3.3,   21.4,    1.0,   14.7,   21.4,    0.9,   21.6,   14.6,   21.5,    0.8,    0.7,    1.1,    0.9,   14.7,    0.4,    7.0,    5.8,    1.1,  999.0,    1.4,  999.0,    1.0,    0.9,  999.0,  -42.6,    0.5,  -20.7,  -20.9,    1.4,  999.0
2000/12/08 10:40,    0.8,    1.5,    2.1,    0.6,    0.7,    1.7,    2.6,    5.7,    6.3,    6.9,    5.5,    4.9,    7.1,    6.7,    5.3,    4.4,    3.7,    3.2,    1.7,   -4.6,  -18.3,  -10.8,  -18.6,  -19.0,  -18.7,  -17.4,   -6.7,   -4.5,    0.9,    0.9,    0.7,    0.5,    0.7,    1.3,    0.6,    0.7,    0.7,    0.8,    0.9,    0.7,    0.5,    0.5,    0.6,    0.7,    1.4,   10.0,    0.9,    7.0,   14.4,   11.4,    0.2,  999.0,   -9.5,  -10.2,    0.6,    1.0,    0.4,    0.1
2000/12/08 10:50,   -3.8,    3.2,    1.2,    1.0,    3.0,    1.4,    3.0,    2.4,    4.9,    5.7,    7.0,    6.6,    7.3,    6.8,    5.5,    3.8,    1.8,    0.2,   -1.5,   -2.7,    1.7,   -7.7,  -11.1,  -13.7,  999.0,  -18.0,  999.0,    0.6,    1.1,    0.5,    0.5,    0.9,    0.6,    0.9,    0.7,    0.4,    0.6,    1.2,    1.0,    0.9,    0.5,    0.6,    0.9,    0.4,    0.8,    0.7,    0.8,    1.0,    1.0,    0.7,    1.4,    1.0,    1.1,    1.0,    1.0,    0.5,    0.3,    0.9
2000/12/08 11:00,   -9.7,    0.8,    0.8,    1.7,    2.9,    5.3,    2.9,    4.1,    6.4,  999.0,  999.0,  999.0,  999.0,    6.6,    6.0,    4.1,    2.9,    3.7,    2.4,    2.5,    3.7,  999.0,    3.0,    2.8,   -3.9,   -3.1,   -4.5,   -9.1,   -4.3,    0.8,    1.1,    6.9,   19.4,    0.8,   14.5,   21.3,   14.3,   41.5,   21.7,   14.6,   14.4,   20.8,   14.6,    0.9,    0.8,   14.6,   21.7,   14.5,   14.6,    0.8,    1.0,    0.6,    0.3,    0.5,    0.4,    0.4,    0.1,    0.7
2000/12/08 11:10,   -6.0,    0.8,    0.8,   -4.0,   -4.3,  999.0,   -1.2,    0.9,    7.2,    7.0,    3.7,    5.3,  999.0,    5.9,    0.4,   -5.4,   -7.4,  -10.0,   -7.9,  -17.7,  -17.2,   12.7,  999.0,    5.5,    0.9,    0.9,    0.7,    0.1,    0.4,   -6.6,   -6.7,    0.7,   -6.6,    0.8,    0.8,    1.0,  -13.4,   -6.4,    0.9,    1.0,  -41.8,   -6.4,  -13.6,    0.7,    1.7,  -15.8,   -8.0,    9.9,   -2.7,   -4.9,    0.4,    1.3,   -9.9,    0.4,   -6.2,    0.9,   -9.8,  -20.5
2000/12/08 11:20,   -1.8,   -1.2,    0.1,    1.8,    3.5,    3.1,    5.4,    6.0,    5.5,    6.7,    7.7,    7.8,    7.5,    8.1,    6.3,    5.9,    2.5,   -2.7,   -6.3,   -9.8,   -4.5,  999.0,    8.4,    6.2,    2.4,    2.3,   -0.0,    0.8,    0.7,    0.4,    0.6,    0.5,    0.6,    0.8,    0.9,    4.0,    0.7,   19.0,   10.2,    3.6,    0.8,    7.9,   11.0,    0.9,    7.6,    9.0,   12.2,   12.7,    0.6,    4.1,   20.1,   15.2,   10.3,  -20.8,  -20.7,    7.3,  -13.5,    0.6
2000/12/08 11:30,    0.7,   -6.6,    1.3,    4.9,    3.4,    4.6,    4.9,    4.6,    4.4,    6.6,    0.7,    0.1,  999.0,    7.6,    6.6,    4.3,    1.7,   -2.1,  -10.0,  -15.1,  -15.0,  999.0,  999.0,  999.0,    1.1,    0.4,    0.3,    0.8,   14.2,    2.0,    2.6,    3.0,    4.7,    5.8,    7.3,   11.1,    7.8,    4.7,   10.9,   11.8,   22.6,   14.3,   11.3,    5.5,   13.5,    0.9,   14.6,   14.6,   26.9,   12.4,    5.9,    3.4,  999.0,   21.4,   20.0,    0.9,    0.6,   -0.1
2000/12/08 11:40,  999.0,   -2.1,    2.3,    5.7,    5.5,    5.4,    5.6,    5.7,    4.8,    7.8,    8.0,    5.7,    7.4,    8.1,    5.3,   -0.4,   -7.6,  -12.6,  -16.9,  -18.3,   -8.3,    1.1,    0.9,  999.0,    0.1,    0.9,    0.5,    0.8,    0.6,    0.4,    0.8,    0.9,    1.0,    0.7,    0.7,    0.6,    4.5,    2.0,    0.9,    0.9,    1.7,    3.7,    8.5,    4.3,    3.6,    7.7,    0.9,   12.5,    0.9,    0.9,    0.9,  999.0,  -16.2,  -18.6,   -1.2,  -20.2,  -10.5,    1.1
2000/12/08 11:50,   -6.6,  999.0,  999.0,    0.3,  999.0,   -0.0,    5.3,    4.5,    0.0,    6.9,    8.0,    4.3,  999.0,    7.0,    6.5,   13.2,   12.0,   14.6,    7.9,    0.2,  999.0,    0.4,    0.6,    0.6,    0.3,    1.0,    5.9,   11.0,   14.0,    2.6,    0.3,    7.8,    7.4,   21.5,    7.6,    7.6,    3.3,    5.2,   10.9,    7.5,    0.7,   11.2,   14.8,   11.8,    7.6,    8.2,    8.6,   10.9,    0.7,   11.3,    0.5,    0.7,    2.7,   13.7,   20.7,    1.0,    1.0,   11.0
2000/12/08 12:00,   -9.7,    6.4,    9.9,    8.8,    8.3,    7.0,  999.0,    7.3,    7.6,    7.6,    7.7,  999.0,  999.0,    6.9,    6.8,    5.4,    3.7,    2.8,   13.8,    9.3,    4.8,    0.9,    6.0,    2.2,    0.7,    0.6,    0.6,    0.4,    1.0,    1.1,    0.6,    0.5,    0.6,    0.6,    0.7,    0.8,    0.8,    0.5,    0.5,    0.8,    0.6,    1.1,    1.0,    0.6,    1.0,    0.6,    0.7,    0.8,    1.0,    0.8,    1.1,    1.0,    0.8,    0.6,    0.6,    0.4,    1.0,    0.8
2000/12/08 12:10,  999.0,    2.2,    3.6,    6.5,    5.2,    4.8,    4.0,    0.0,    4.0,    6.5,    7.9,    8.8,  999.0,    7.5,    6.2,    5.9,   12.0,   10.6,   14.4,    9.2,    4.7,    3.8,    0.5,    0.7,    0.5,    0.8,    0.9,    1.2,    0.5,    0.6,    0.4,    0.7,    0.9,    0.6,    1.0,    0.9,    0.7,    0.6,    0.7,    0.9,    0.7,    0.7,   11.3,   11.2,   10.9,    7.7,    0.7,    3.2,    0.7,    1.0,   11.7,    2.5,   10.3,    0.8,    1.2,    7.6,    0.8,    1.3
2000/12/08 12:20,  999.0,   -0.1,    0.0,    1.5,   -0.2,    0.1,    0.6,   -0.5,   -0.1,    9.3,    9.0,   13.3,    8.1,   25.5,   16.8,   16.7,   11.9,  999.0,   19.2,  999.0,    8.5,   -2.5,    2.4,   10.7,   10.8,    7.7,   -6.3,   21.1,   10.7,    0.9,   -5.8,   -3.7,   -0.4,   11.3,    0.6,    0.2,    0.6,  -10.3,    0.6,    7.6,  -21.4,  -10.3,    7.2,   -2.0,  999.0,    0.6,  -13.9,    5.4,   -0.9,   -3.5,  -18.4,   -9.9,  -21.7,  -18.5,  -41.9,  -20.8,  -10.5,  -20.4
2000/12/08 12:30,  999.0,    3.8,    3.4,    5.6,    6.0,    3.8,    2.1,    0.0,    0.3,   11.7,   10.6,   21.1,   11.5,   13.5,    6.2,    5.2,    2.9,   -2.3,  999.0,  -11.6,  -16.7,  -19.0,  -10.2,  -16.9,    0.6,  -13.3,    1.0,    0.8,   -9.9,   -4.2,  -19.9,   -0.1,  -13.5,    0.4,  -13.9,   -6.3,  -20.9,  -13.6,    0.7,    0.7,  -21.0,    0.5,  -21.0,   -6.3,  -13.5,    0.7,    1.0,    1.3,   -6.3,    0.7,  -10.2,   -9.8,    0.7,  -20.8,   -6.3,   -9.8,    0.7,    0.3
2000/12/08 12:40,  999.0,    0.0,    0.2,   -0.2,   -0.4,   -0.3,   -0.1,   -0.1,    0.1,   -0.4,  999.0,  999.0,    7.8,    7.3,    0.6,    6.0,    4.6,    0.8,  999.0,  999.0,    0.7,   17.3,    1.6,    7.7,   11.1,   13.9,    0.7,    3.9,    7.5,    1.7,    6.8,    0.8,   12.0,   14.6,    0.6,    0.7,    0.9,    5.0,   11.0,   11.3,   14.5,   11.0,    7.8,    7.8,   15.3,   11.9,   10.0,   21.5,   14.5,   18.6,    1.2,    7.6,   11.0,    7.4,    0.8,    0.4,    0.9,    1.2
2000/12/08 12:50,  999.0,    0.3,   -2.1,   -0.4,   -0.3,   -0.2,   -0.1,   -0.3,   -0.2,    0.5,  999.0,  999.0,  999.0,  999.0,    6.4,    5.7,    2.5,   -0.5,  999.0,  999.0,    6.2,    3.3,    1.7,    1.0,    0.5,    1.3,    0.8,    0.6,    1.0,    0.5,    0.6,    0.4,    1.5,    0.9,    0.9,    0.8,    1.1,    0.6,    0.9,    0.2,    0.8,    0.8,    0.7,    0.7,    0.6,    0.9,    0.3,    0.7,    0.7,    0.7,  999.0,    0.7,    0.9,    0.6,    0.8,    0.8,    0.2,    0.7
2000/12/08 13:00,  999.0,    3.2,    7.3,    5.3,    0.5,   -0.4,   -0.3,   -0.3,   -0.2,  999.0,  999.0,  999.0,  999.0,  999.0,    5.6,    5.8,   11.3,    9.4,  999.0,    8.1,    5.2,    0.8,    0.9,    1.5,    0.8,    1.3,    0.3,    0.8,    0.6,  999.0,    0.4,    0.9,    0.7,    0.7,    0.9,    0.7,    0.7,    0.7,    0.8,    0.6,    0.8,    0.7,    0.5,    0.7,    1.1,    0.7,    0.4,    0.7,    0.5,    0.9,    0.7,    0.9,    0.7,    0.6,    1.1,    0.6,    0.6,    1.0
2000/12/08 13:10,  999.0,    4.3,    5.1,    5.6,   17.0,    0.0,   -0.1,   -0.3,    7.1,   10.7,  999.0,   21.6,   21.6,   20.5,    7.0,    9.8,    7.0,    4.9,  999.0,    1.2,   10.5,   13.1,   12.3,   13.7,   13.3,    6.7,    9.3,    6.7,    6.2,    4.2,    1.0,    2.1,    0.6,    1.3,    1.4,    0.8,    0.7,    0.7,    0.8,    0.2,    0.7,    0.6,    0.6,    0.9,    0.8,    0.7,    0.8,    1.0,    0.8,    0.7,    2.1,   11.4,    1.1,   14.2,    7.8,    7.8,   10.9,    7.6
2000/12/08 13:20,  999.0,    3.4,    5.5,  999.0,   -0.2,    3.9,   10.7,    5.3,    8.8,   10.8,    7.9,    8.5,   13.7,   12.9,   12.1,   15.1,  999.0,  999.0,  999.0,   22.2,   20.2,   17.8,   16.4,   14.8,   12.7,   10.0,   11.4,    8.6,    6.3,    4.7,    4.0,    4.7,    1.0,    0.7,    0.5,    0.5,    0.5,    0.9,    0.5,    0.7,    0.5,    0.7,    0.8,    0.8,    1.0,    0.9,    0.8,    0.7,    0.3,    0.6,    0.6,    0.4,    0.4,    0.6,    0.5,    0.7,    0.8,    0.8
2000/12/08 13:30,  999.0,   -0.1,    0.2,    0.7,   -0.0,   -0.0,   -0.2,    0.2,   -0.1,  999.0,    8.7,    9.1,    7.7,    7.5,    7.4,    5.7,  999.0,  999.0,  999.0,  999.0,   19.6,   19.6,   17.9,   17.2,   15.4,   13.8,   11.2,   10.7,    9.4,    7.8,    6.4,    5.4,    3.3,    2.9,    1.1,    1.0,    0.6,    4.5,    6.8,   10.8,    9.3,   12.9,   21.3,    0.9,    1.3,   12.9,    8.5,    4.2,    1.0,    0.8,    0.4,    8.6,    0.8,    0.6,    0.5,    0.9,    0.7,   14.3
2000/12/08 13:40,  999.0,  999.0,  999.0,   -0.5,    0.9,    3.2,    1.9,    0.7,    2.2,    8.6,    9.9,    9.6,    7.0,    6.4,    5.6,    3.9,  999.0,  999.0,  999.0,   18.0,   12.0,   11.1,   10.1,    9.2,    8.6,    1.0,    6.9,    8.3,    8.5,    7.4,    3.4,    2.3,    0.5,    1.6,    0.9,    0.8,    0.5,    0.9,  999.0,    0.8,    1.0,    1.0,    0.6,    0.9,    0.6,    0.9,    0.5,    0.5,    0.7,    0.7,    0.8,    0.3,    0.6,    0.6,    0.3,    0.9,    0.7,    1.0
2000/12/08 13:50,  999.0,   -0.3,  999.0,    9.4,    8.1,    8.6,    6.9,    6.4,    7.8,    7.5,    7.9,   10.7,  999.0,  999.0,    5.3,    4.5,    3.7,    2.4,   20.9,   18.1,   15.7,   12.8,  999.0,    8.4,    6.1,    0.8,    1.0,    0.7,    0.5,    0.0,    0.9,    0.4,    0.5,    1.0,    0.6,    0.9,    0.7,    1.0,    1.2,    0.3,    0.6,    0.3,    0.4,    0.4,    0.7,    0.7,    0.8,    1.2,    0.7,    0.3,    0.6,    0.6,    0.3,    0.6,    0.5,    1.0,    0.5,    0.4
2000/12/08 14:00,  999.0,    3.6,    3.3,    6.7,    7.4,    6.8,    0.8,    7.8,    7.5,    6.4,    6.5,    6.9,    6.3,    5.5,    5.1,    4.2,    1.9,    2.9,    2.4,    2.2,    1.9,    1.9,   20.2,    7.7,    7.2,  999.0,    0.9,  999.0,    0.6,    0.0,    0.6,    1.6,    2.2,    1.4,   -0.0,    0.4,    0.6,    0.8,    0.6,   10.6,    0.4,    1.2,    0.4,  999.0,    0.8,    1.1,    0.8,  999.0,    0.5,    0.4,    0.7,    0.4,    0.4,    0.4,    7.0,    5.6,    0.2,   -0.0
2000/12/08 14:10,  999.0,    1.1,    3.0,    8.1,    8.1,    7.9,    3.7,    4.8,    4.1,    4.9,    5.0,    0.1,  999.0,    7.2,    6.5,    4.3,    2.0,    3.6,    3.3,    4.1,    2.7,    2.9,    3.0,  999.0,  999.0,  999.0,  999.0,  999.0,  999.0,  999.0,  999.0,  999.0,  999.0,  999.0,  999.0,    6.4,  999.0,    4.6,    3.9,  999.0,    1.6,    1.3,    7.5,    1.6,    7.3,    7.4,    2.4,    0.8,    0.4,    0.3,    0.3,    1.0,    0.8,    0.8,    0.9,    0.5,    1.0,    0.1
2000/12/08 14:20,  999.0,    4.9,    5.7,    6.3,    3.8,    1.7,    2.4,    3.6,    4.6,    5.3,    5.6,    6.0,    5.6,    3.7,    1.8,    2.8,    2.1,    2.7,    2.4,   11.5,   11.5,   -0.9,   11.2,   11.6,  999.0,  999.0,  999.0,   32.0,  999.0,  999.0,   37.1,   38.5,   40.2,   19.6,   42.2,  999.0,   42.1,   16.6,   21.0,   42.1,   15.7,    2.5,   15.5,   22.3,    1.2,   14.6,   21.5,   14.6,    0.9,   21.5,   13.1,    6.7,    3.2,   41.7,    0.6,   13.0,    7.8,    0.8
2000/12/08 14:30,  999.0,    2.1,    4.6,    4.0,    5.2,    1.8,    1.3,    4.0,    0.1,    4.2,    4.1,    4.4,    4.4,    3.9,    2.5,    2.6,    4.8,    7.2,    3.0,   -1.2,  999.0,  999.0,  999.0,  999.0,  999.0,  999.0,  999.0,   13.7,   12.9,   11.2,   10.7,  999.0,   41.9,   25.0,   16.7,   16.2,   23.6,   15.7,   21.2,   15.1,   14.9,    1.0,   21.4,   14.1,   11.7,    7.8,    7.8,    7.6,    0.7,    0.8,    0.7,    1.8,    6.6,    1.3,    4.3,    7.6,   11.2,   14.3
2000/12/08 14:40,  999.0,    3.5,    6.5,    7.9,    6.3,    3.2,    1.1,    3.3,    5.3,    3.9,    3.5,    3.5,    4.2,    3.8,    1.5,   -0.4,   -0.0,    1.3,    3.9,  999.0,  999.0,  999.0,  999.0,   42.1,   28.8,   27.9,   26.9,   26.6,   25.1,   23.9,   16.4,    2.8,   17.3,   17.4,   21.0,   21.2,   16.4,   27.9,   13.0,   12.3,   17.7,   21.1,    5.4,   10.8,    8.8,    0.8,    0.5,    0.6,    6.2,   13.1,    9.1,   13.2,   11.2,    7.5,    1.7,   21.1,   21.2,   14.9
2000/12/08 14:50,  999.0,  999.0,    8.1,    8.0,    3.8,    0.8,    0.7,    1.7,    2.9,    3.0,    1.0,    1.9,    2.5,    0.1,   -0.9,   -0.2,    2.4,  -14.2,   -3.0,  -14.6,  999.0,  999.0,  999.0,  999.0,   14.7,   14.0,    8.8,    7.5,    6.4,    5.2,    4.2,    3.1,    1.7,    2.6,    0.7,    0.8,    1.1,    0.7,    0.9,    0.8,    0.5,    0.7,    0.6,    0.7,    1.0,    0.9,    0.6,    0.6,    0.6,    0.6,    1.0,    0.8,    0.9,    0.5,    0.6,    0.9,    0.6,   -0.2
2000/12/08 15:00,  999.0,    7.2,    7.7,    1.6,  999.0,    1.2,    1.5,    2.4,    2.8,    3.6,    3.1,    3.1,    3.8,    1.4,    1.7,    3.9,    6.1,   19.5,   19.5,    3.1,  999.0,  999.0,  999.0,  999.0,    0.6,   24.6,   14.8,   12.8,   10.9,    8.6,    7.9,   11.0,    0.8,    7.6,   12.7,   12.0,    8.5,   11.8,   10.1,   11.2,   21.1,   20.7,   11.1,    4.7,    0.3,    7.4,    0.8,    0.7,    4.9,    5.7,   -5.5,    7.5,    5.4,   -6.4,  -13.4,    0.5,   -6.5,   -8.7
2000/12/08 15:10,   25.6,   23.6,   17.8,   15.6,   13.8,   14.6,   10.5,    6.9,    5.7,    4.9,    4.5,    4.2,    4.0,    3.9,    4.4,    4.3,    5.9,    3.9,   12.7,   11.9,   18.5,   18.3,   15.8,   13.3,   11.6,   10.9,    8.4,    4.4,    3.1,    1.5,    0.5,    0.8,    0.8,    1.0,    0.6,    0.8,    0.8,    0.8,    0.6,    1.0,    0.7,    0.5,    0.7,    0.8,    0.7,    0.8,    0.8,    1.0,    0.9,    0.8,    0.6,    0.6,    0.5,    0.8,    0.6,    0.7,    0.8,    0.7
2000/12/08 15:20,   20.5,   14.8,   12.9,   10.7,    9.6,    8.6,   10.0,    9.1,    9.6,   11.1,   11.0,   12.2,    9.8,    9.3,   12.5,   13.1,   13.0,   22.0,   21.0,   21.0,   19.5,   17.7,   14.1,   11.7,    9.8,    7.5,    4.9,    2.8,    0.9,    0.8,    0.8,    0.7,    0.5,    0.7,   -1.9,    0.7,  999.0,   -2.3,   -4.8,   -3.8,    0.8,    0.7,    0.9,   -5.4,   -2.9,   -1.8,    0.1,   -0.1,    0.4,   -1.0,    0.2,    0.4,    1.0,   14.5,    7.2,   14.4,    7.4,    7.2
2000/12/08 15:30,   20.8,    0.4,    5.7,    5.0,    3.8,    3.4,    3.0,    2.1,    4.4,   -2.2,   -1.3,   -1.6,   -2.3,   -8.7,   -6.1,   -5.4,   -6.5,   -8.3,  -13.1,  -16.7,  -18.0,  -14.2,  -15.4,   -3.7,   -7.3,   -6.5,   -3.9,    6.2,   -1.7,   -0.9,   -5.2,    1.3,   -1.8,  -10.5,   -3.1,   -1.5,   -0.0,    7.1,   24.8,   -0.8,   -1.0,    1.3,    1.0,   -2.8,    4.3,   10.2,    9.3,   13.8,   21.1,   26.1,   24.8,   22.1,   24.5,   26.8,   16.1,   19.8,   19.5,   19.6
2000/12/08 15:40,   19.3,   24.5,   27.8,   26.5,   25.7,   24.9,   24.4,   23.9,   21.6,  999.0,   20.4,   -0.6,   -0.4,   -1.5,    0.4,    0.2,    2.5,    8.4,    1.0,    0.8,   -0.9,   -0.8,   -0.4,   -0.7,   -0.9,   -0.7,   -0.8,   -0.8,   -0.7,  -10.3,   -7.5,   -1.9,   -0.5,   -0.6,   -0.6,   -0.6,   -0.8,    0.1,    0.1,   -0.9,  999.0,  999.0,  999.0,  999.0,   10.7,    6.4,    4.4,    6.3,    8.2,    1.9,    8.1,    5.3,    7.4,    7.4,    7.6,    8.1,    8.9,   10.0
2000/12/08 15:50,    1.7,   10.8,   10.9,    7.3,    7.5,    9.0,    4.5,   10.4,    6.2,    7.7,   14.9,   19.7,   14.2,   12.2,   -2.0,   10.0,   28.3,   16.9,   -0.9,   20.3,   -0.8,   -0.3,   -0.5,   -0.7,   -0.6,   -1.0,   41.5,   -0.4,   -1.0,  -21.2,  -13.6,  -39.9,   -0.2,   -7.5,  -10.3,   -7.3,   -2.4,  -41.9,   42.3,   -1.0,  -20.5,   -3.4,    2.0,   -9.3,  -10.6,    0.2,  -18.2,    5.7,    9.6,  999.0,   41.3,   42.7,   20.6,   21.0,   20.4,  999.0,   37.3,   -2.2
2000/12/08 16:00,  999.0,    4.2,    5.6,    7.4,    8.8,    8.9,    5.1,    5.0,    5.1,    4.2,    4.3,    4.0,    3.1,    3.6,    4.0,    4.5,    1.4,   -0.5,    0.9,    0.1,   -0.9,    0.6,   -0.9,   -3.5,   -2.7,   -6.7,  999.0,  999.0,  -31.8,  999.0,  999.0,  999.0,    0.8,  999.0,  -42.0,  -41.9,  -42.4,  -41.9,  -27.9,  -27.3,  -42.0,  -34.7,  -20.6,  -41.7,  -41.6,  -41.9,  -42.0,  -20.4,  -27.6,    9.7,  999.0,  999.0,   -2.6,    1.3,    0.3,    0.7,    0.9,  -21.1
2000/12/08 16:10,  999.0,    0.7,    6.1,    4.0,    4.1,    7.4,    3.8,    0.4,    3.6,    5.0,    5.0,    2.2,    3.4,    4.1,    4.1,  999.0,    0.3,   -0.1,   21.3,   20.7,   -3.6,   20.5,   13.9,    7.2,    3.7,    6.0,   41.7,  999.0,  999.0,  999.0,  -17.0,  999.0,  999.0,  999.0,  999.0,  999.0,  -35.3,  -21.7,  -29.8,  -42.2,  -31.7,  -26.6,  -28.1,  -12.6,  -21.5,  -26.4,  -31.7,  -34.0,  -34.4,  -39.7,  -29.5,   -1.3,  -27.4,  -42.4,  -32.1,  -41.8,  -21.9,  -10.2
2000/12/08 16:20,  999.0,  999.0,    3.7,   10.1,    6.5,    6.1,    3.1,    3.1,    1.5,    4.4,    4.1,    2.3,    3.2,    3.4,    4.4,    4.2,    0.3,   -1.0,    8.2,   21.5,  999.0,    5.7,    1.5,    5.9,    4.7,  -17.5,  999.0,  999.0,  -16.8,   41.8,   42.1,   41.9,  -42.1,   -0.1,   -0.2,  999.0,   -0.2,    0.2,  -13.7,  -41.7,  -42.2,  -41.7,  -13.6,  -42.3,  -13.9,  -13.8,  -42.1,  -14.0,   42.4,  -14.0,  -13.6,  -41.7,  -41.9,    0.2,    0.1,  -14.0,   -0.2,  -42.2
2000/12/08 16:30,  999.0,    8.3,    9.3,   10.3,   10.0,    7.9,    8.2,    7.4,    2.1,    3.2,    2.2,    2.3,    3.6,    4.3,  999.0,  999.0,    7.9,    6.5,  999.0,  999.0,    1.0,  -11.0,   -1.0,   -2.2,  999.0,  999.0,  999.0,   -3.3,    4.6,  999.0,  999.0,  999.0,  999.0,  999.0,   16.1,   -3.0,   14.4,  -20.8,  -42.3,  -42.1,  -41.4,  -42.4,  -21.1,  -26.3,  -28.1,  -42.5,  -32.9,  -24.3,  -35.2,  -42.0,  -42.1,  -22.9,  -31.1,  -42.0,  -30.9,  -42.5,  -31.6,  -15.1
2000/12/08 16:40,  999.0,   12.0,   12.1,   12.5,    9.9,    9.7,   12.0,    7.1,    6.9,   13.1,   21.2,   20.7,    5.2,    4.8,  999.0,  999.0,   -1.2,   -1.5,  999.0,  999.0,   -7.6,  -10.4,   -6.8,  -14.8,  -21.3,  -21.4,  -11.8,  -18.0,  -17.6,  -41.6,  -33.1,  -23.2,  -21.1,  999.0,  -21.5,  -28.4,  -38.1,  999.0,  999.0,  -29.6,  -31.2,  -41.2,  -33.7,  -40.2,  -41.9,  -37.4,  -39.6,  -28.0,  -22.0,  -37.6,  -40.7,  -34.8,  -28.9,  -41.5,  -42.2,  -31.3,  -21.1,  -34.7
2000/12/08 16:50,  999.0,    9.5,    9.6,    9.8,   11.1,   11.3,   10.5,    7.9,    6.6,    5.3,    1.8,    2.1,  999.0,    4.2,  999.0,  999.0,    0.3,   -3.4,   17.2,  999.0,  999.0,  -10.3,   -3.4,   13.1,  999.0,   12.4,  -17.3,   -7.5,  -17.0,  999.0,  999.0,    8.1,    7.3,    7.0,    4.6,    1.4,    1.1,  999.0,  999.0,    0.9,  -41.2,  -31.1,  -31.2,  -41.9,  -41.7,  -34.6,  -34.4,  -41.7,  999.0,  -34.9,  -20.8,  -20.7,  -20.6,  -41.4,  -35.1,  -42.0,  -31.0,    1.2
2000/12/08 17:00,  999.0,    8.8,    9.5,   10.9,   11.0,   11.0,    7.7,    6.8,    6.3,    5.8,    3.6,    4.4,  999.0,   -2.7,  999.0,    9.7,    6.5,    3.2,   -2.1,    1.0,   -9.8,  999.0,   -4.7,   -5.9,  -11.2,  -11.7,  -16.1,  -17.0,  999.0,  999.0,  999.0,  999.0,  999.0,  999.0,  999.0,  999.0,  999.0,  -41.5,  -42.3,  -41.5,  -42.1,  -42.0,  -41.9,  -41.7,  -41.9,  -41.9,  -41.9,  -42.0,  -42.1,  -41.9,  -41.8,  -41.3,  -34.8,  -41.5,  -34.8,  -34.9,  -31.7,  -42.7
2000/12/08 17:10,  999.0,  999.0,  999.0,  999.0,    8.7,    9.3,    8.9,    8.1,    7.5,    5.0,    4.5,    3.0,    3.9,  999.0,  999.0,  999.0,   17.6,    1.0,    0.6,  999.0,    9.1,   -2.6,    4.9,    2.5,    1.1,   -7.4,  -13.1,  999.0,  999.0,    0.4,    0.4,   -0.1,  -20.6,    0.9,  999.0,  -41.8,  999.0,    0.6,  -41.7,  -42.0,  -30.1,  -27.5,  -27.5,  -27.8,  -34.8,  -41.6,  -41.9,  -41.7,  -27.5,  -31.5,  -31.2,  -41.8,  -41.5,  -31.1,  -34.8,  -41.6,  -41.9,  -41.8
2000/12/08 17:20,  999.0,    8.0,    9.2,   10.0,    8.5,    8.9,    9.2,    9.4,    8.5,    4.9,    3.7,    2.7,    1.0,    1.8,   -0.8,   -0.5,   -4.2,   -3.8,  999.0,    9.7,    6.1,  999.0,  999.0,    4.5,  999.0,  999.0,  999.0,  999.0,  999.0,  999.0,  999.0,  -41.9,  -41.6,  -41.9,  -42.1,  -42.6,  -42.0,  -41.8,  -37.6,  -41.9,  -42.2,    0.3,  -27.6,  -39.7,  -13.3,  -27.6,  -21.1,  -41.6,  -14.8,  -32.8,  -40.3,  -34.8,  -34.2,  -34.4,  -22.0,  -42.3,  -21.9,  -41.2
2000/12/08 17:30,  999.0,  999.0,  999.0,   11.1,    9.6,    8.7,    8.8,    8.1,    8.0,    4.8,    3.3,    3.2,  999.0,  999.0,  999.0,   -2.0,  999.0,  999.0,  999.0,  999.0,  999.0,  999.0,  999.0,  -41.7,  999.0,  -42.0,  999.0,  -42.1,  -41.8,  -41.6,  -41.8,  -42.0,  -41.6,  -42.0,  -41.7,  -42.0,  -41.5,  -41.9,  -41.8,  -41.6,  -41.7,  -41.7,  -41.7,  -41.8,  -41.4,  -41.7,  -42.0,  -41.9,  -41.6,  -41.7,  -41.7,  -41.8,  -41.5,  -41.9,  -41.9,  -41.8,  -42.1,  -41.6
2000/12/08 17:40,  999.0,  999.0,  999.0,   10.6,    9.2,    8.0,    6.4,    7.0,    5.9,    4.1,    2.3,    2.0,    1.8,    0.1,   -5.7,  999.0,   -8.6,  -11.3,  999.0,  999.0,  999.0,  999.0,  999.0,  999.0,  999.0,  -41.8,  -41.8,  -41.5,  -41.9,  -41.7,  -41.6,  -42.0,  -41.6,  -41.2,  -41.7,  -41.7,  -41.7,  -41.3,  -41.9,  -41.8,  -41.8,  -42.0,  -41.6,  -42.0,  -41.8,  -42.2,  -41.3,  -41.0,  -41.3,  -41.5,  -41.2,  -41.2,  -41.9,  -41.5,  -42.0,  -41.5,  -41.6,  -41.2
2000/12/08 17:50,  999.0,  999.0,   10.5,   11.5,   11.0,    9.3,    4.2,   -0.7,    2.1,    0.6,    4.3,    2.4,    2.0,    2.4,   -0.8,   -3.2,   -6.2,  999.0,  999.0,  999.0,  999.0,  -24.2,  999.0,  999.0,  999.0,  999.0,  999.0,  -41.6,  999.0,  -41.7,  -42.0,  -41.9,  -42.0,  -41.7,  -41.4,  -41.6,  -41.6,  -41.2,  -41.8,  -42.3,  -42.0,  -41.8,  -42.3,  999.0,  -41.9,  -41.7,  -41.8,  -41.5,  -41.7,  -41.7,  -41.9,  -41.5,  -41.9,  -42.0,  -42.2,  -42.7,  -41.9,  999.0
2000/12/08 18:00,  999.0,    9.1,    9.2,   10.2,    8.8,    7.3,    7.1,    6.5,    4.2,    4.5,    3.8,    0.7,    0.8,    0.4,   -0.9,   -4.0,   -5.8,   -7.8,  999.0,  999.0,  -18.2,  999.0,  999.0,  -22.5,  -41.3,  -41.2,  -41.9,  -41.7,  999.0,  -41.8,  -42.2,  -42.3,  -42.0,  -41.6,  -41.2,  -41.6,  -41.8,  999.0,  -42.1,  -41.8,  -41.8,  -40.2,  -41.6,  -41.8,  -41.9,  -42.0,  -42.1,  -41.9,  -41.7,  -36.7,  -31.3,  -41.4,  -41.6,  -36.6,  -41.6,  -42.0,  -41.1,  -41.4
2000/12/08 18:10,  999.0,   10.2,   11.1,   12.0,  999.0,    7.2,    6.1,    5.2,    4.1,    4.1,    3.7,    3.5,    2.6,    2.3,    2.5,    1.5,   -1.2,   -3.9,  999.0,  999.0,  999.0,  999.0,  999.0,  999.0,  999.0,  -42.1,  999.0,  999.0,  -41.0,  -41.3,  -42.3,  999.0,  -41.7,  999.0,  -41.6,  -41.7,  -41.9,  -42.0,  -42.5,  -41.6,  -41.6,  -41.7,  -41.8,  -42.4,  -41.5,  -42.2,  -41.7,  -41.6,  -42.3,  -41.3,  -42.0,  -41.6,  999.0,  -41.6,  999.0,  -41.7,  -41.6,  -41.6
2000/12/08 18:20,  999.0,    9.8,   10.3,   10.6,    9.4,    8.0,    6.8,    5.5,    5.3,    2.6,    2.3,  999.0,  999.0,    2.8,    1.2,   -0.6,  999.0,   -4.1,   -5.0,  999.0,  999.0,  999.0,  999.0,  -28.9,  999.0,  -40.9,  -41.2,  -41.3,  -41.3,  -41.9,  -42.5,  -42.2,  -42.0,  -41.6,  -41.6,  999.0,  -41.9,  -41.7,  -41.4,  -42.3,  -42.0,  -41.5,  -41.8,  -41.7,  -41.8,  -41.5,  999.0,  -42.1,  -41.6,  -41.2,  -42.0,  -42.2,  -42.3,  -41.6,  -41.9,  -42.1,  999.0,  -41.4
2000/12/08 18:30,  999.0,    9.5,    8.9,   10.5,   11.1,    8.9,    7.9,    6.7,    5.5,  999.0,    2.5,  999.0,    2.1,    0.5,   -2.6,    3.9,  999.0,   -9.9,  999.0,  999.0,  -16.7,  -19.0,  999.0,  -33.6,  999.0,  999.0,  999.0,  -41.4,  -41.3,  -41.8,  -42.0,  -42.1,  -41.4,  -41.2,  -41.6,  -41.4,  -41.4,  -41.5,  -41.1,  -41.2,  -42.3,  -41.4,  -41.4,  -41.5,  -41.7,  -41.9,  -41.9,  -41.4,  -41.2,  -41.4,  -41.3,  -41.4,  -41.6,  999.0,  -42.0,  -41.5,  -41.4,  -41.7
2000/12/08 18:40,  999.0,  999.0,  999.0,    6.8,    9.6,    7.1,  999.0,    7.1,    4.5,    4.5,    2.9,    3.1,    4.4,    6.5,    0.7,  999.0,  999.0,  999.0,   -8.9,  999.0,  999.0,  999.0,  999.0,  999.0,  -41.3,  -41.5,  -41.9,  -42.0,  -42.1,  999.0,  -41.7,  -41.6,  -41.5,  999.0,  -42.0,  -42.2,  -42.2,  -42.4,  -41.9,  -42.3,  -41.8,  -41.9,  -41.9,  -41.7,  -41.3,  -41.3,  -42.0,  -41.4,  999.0,  -42.0,  999.0,  -42.2,  -42.0,  -41.9,  -41.8,  -42.4,  -42.4,  -41.6
2000/12/08 18:50,  999.0,    8.4,    5.8,    8.0,  999.0,  999.0,    2.4,    2.3,    4.0,    4.1,    4.8,    5.0,    3.3,   -0.8,   -2.0,   -2.6,   -0.0,   -5.8,   -3.7,   -0.2,  999.0,  -24.5,   -6.1,  999.0,  -42.2,  -41.2,  -41.6,  -41.4,  -41.2,  -41.8,  -42.0,  -42.1,  -41.9,  999.0,  -42.1,  -42.2,  -42.0,  999.0,  -42.7,  -41.9,  -42.9,  -43.4,  999.0,  -41.5,  -41.3,  -41.5,  -42.2,  999.0,  -42.0,  -42.6,  -42.1,  -41.7,  -40.5,  -42.1,  -42.1,  -41.7,  -41.6,  -42.3
2000/12/08 19:00,  999.0,  999.0,  999.0,  999.0,  999.0,    7.0,    7.7,    8.1,    4.9,    5.0,    4.2,    3.6,   -1.7,   -2.2,   -5.2,   -9.7,  -12.7,  999.0,  -16.6,  999.0,  -25.9,  -26.9,  -31.5,  999.0,  999.0,  -41.6,  -41.6,  -41.8,  -41.8,  -41.5,  -41.4,  -41.7,  -41.7,  -42.0,  -42.1,  999.0,  -41.7,  -41.7,  -42.0,  -41.7,  -41.9,  999.0,  -41.7,  -41.8,  -42.1,  -41.7,  999.0,  -41.6,  -41.7,  999.0,  -41.8,  -42.3,  999.0,  -41.8,  -42.0,  -41.6,  -41.5,  -41.4
2000/12/08 19:10,  999.0,    3.7,  999.0,  999.0,    6.2,    3.3,    7.1,    3.3,   -4.4,   -3.3,   -5.5,    4.7,    1.1,    4.9,    4.5,   -0.3,    3.6,  999.0,  999.0,   -4.2,  -17.8,  999.0,  999.0,  999.0,  999.0,  -41.4,  -41.7,  -17.8,  -17.1,  -41.7,  -41.7,  -41.3,  -41.6,  -41.4,  999.0,  -41.2,  -42.1,  999.0,  -41.4,  -41.0,  -41.9,  -41.1,  -41.5,  -41.2,  -41.2,  -41.8,  999.0,  -41.1,  -41.3,  -41.5,  -41.2,  -41.7,  -41.8,  -41.4,  -41.1,  999.0,  -41.4,  -41.7
2000/12/08 19:20,  999.0,   10.8,    5.5,    7.7,    4.2,    7.1,    6.3,    5.0,    0.4,    3.0,  -13.5,   -6.2,   -6.4,   -7.6,   -8.5,   -9.6,  -10.7,  999.0,  -11.5,  -16.1,  -21.2,  999.0,  999.0,  999.0,  999.0,  -41.7,  -41.7,  -42.7,  -41.7,  -41.9,  -41.6,  -41.7,  -41.8,  -42.2,  -41.8,  -41.6,  -41.8,  -41.6,  999.0,  999.0,  999.0,  -42.3,  -42.0,  -41.5,  -42.0,  999.0,  -41.3,  -41.4,  -41.6,  -41.5,  -41.5,  999.0,  -42.5,  -42.0,  -41.7,  999.0,  999.0,  -41.6
2000/12/08 19:30,  999.0,  999.0,    4.0,    4.1,    8.3,    8.0,    7.2,    4.5,    4.0,    2.7,    0.1,    2.9,   -0.9,    1.6,   -1.8,   -7.2,  -12.2,  999.0,  999.0,  999.0,  -28.1,  -29.0,  -28.2,  -28.2,  -28.4,  999.0,  -41.2,  -39.8,  -41.0,  -41.8,  999.0,  -41.6,  -42.1,  -41.9,  -42.0,  -42.2,  -42.0,  -42.1,  -42.7,  -42.0,  -42.1,  -41.9,  -42.1,  -41.8,  999.0,  -41.8,  -41.5,  -41.9,  -41.8,  -42.0,  -41.8,  -41.2,  -41.8,  -41.8,  -41.8,  -42.0,  999.0,  -41.6
2000/12/08 19:40,  999.0,    8.7,    8.1,  999.0,    8.6,    8.8,    7.6,    5.6,    5.1,    1.7,   -1.2,  999.0,   -2.6,  999.0,  999.0,   -7.6,  -10.5,  -12.1,  -18.0,  -22.5,  999.0,  -25.4,  999.0,  999.0,  -41.8,  -42.2,  -42.5,  999.0,  999.0,  999.0,  999.0,  -42.4,  -42.3,  -42.9,  999.0,  999.0,  999.0,  -42.0,  -41.5,  999.0,  -41.1,  999.0,  -41.9,  -42.1,  999.0,  -42.4,  999.0,  999.0,  -41.3,  -41.7,  999.0,  999.0,  999.0,  -41.3,  -41.7,  999.0,  999.0,  -41.7
2000/12/08 19:50,  999.0,  999.0,    8.2,    8.8,    9.7,    9.8,    7.8,    3.8,   -1.7,   -4.2,   -9.5,   -9.1,   -2.1,  999.0,  -13.0,  -14.0,  -14.0,  999.0,  999.0,  999.0,  -27.4,  999.0,  -23.6,  999.0,  999.0,  999.0,  999.0,  -41.2,  -41.5,  -42.1,  -41.8,  -41.8,  999.0,  -42.1,  -42.7,  -41.9,  -41.3,  -41.7,  -42.0,  -42.4,  -41.9,  -41.8,  -41.4,  -42.0,  -41.7,  -41.4,  -41.4,  -41.9,  -41.5,  999.0,  999.0,  -41.8,  -42.0,  -41.9,  999.0,  -41.8,  -41.4,  -42.0
2000/12/08 20:00,  999.0,    9.1,    9.0,    8.9,    9.5,    9.4,    8.4,    6.8,    2.1,    0.2,    0.2,   -2.6,   -7.2,   -9.4,  -11.9,  -14.3,  -15.0,  999.0,  999.0,  -24.1,  -23.5,  999.0,  -23.9,  -22.4,  -27.0,  999.0,  999.0,  999.0,  999.0,  -40.9,  -42.1,  -41.8,  -42.2,  999.0,  -42.2,  -42.2,  -41.4,  -41.3,  -41.5,  -42.3,  -42.1,  999.0,  -42.2,  -42.1,  -42.1,  -41.5,  -41.6,  -41.7,  -41.8,  -41.5,  999.0,  -41.1,  -41.4,  -41.8,  -42.0,  999.0,  -42.4,  999.0
2000/12/08 20:10,  999.0,    8.3,   10.1,   10.6,    9.3,    9.9,    8.4,    7.6,    6.2,    2.2,    1.7,    1.9,    0.8,   -1.1,  999.0,   -1.7,    1.5,   13.7,  -13.6,    0.9,  -19.4,   16.1,   14.8,  999.0,  999.0,  999.0,  999.0,  999.0,   10.0,  -26.7,    6.3,  -15.1,    6.0,  -17.3,  -19.9,  -41.7,  999.0,  -42.4,  -42.1,  -41.7,  -41.6,  -41.0,  999.0,  -34.3,  -19.7,    1.8,   10.7,  -25.9,   -8.2,  -10.3,  -40.2,  -41.8,  -42.0,  -32.3,  -28.1,  999.0,  -42.3,  -43.0
2000/12/08 20:20,  999.0,   -9.1,    4.1,    4.8,    2.3,  -10.1,    1.8,    1.3,   -0.2,   -1.7,    0.8,   -1.0,   -1.8,   -4.3,   -6.4,   -3.8,   -5.6,  -16.2,  -21.1,  -17.9,  -16.6,  -16.7,  -16.3,  -14.2,  -11.9,   -9.7,    7.9,    6.2,    3.1,    5.5,   -0.0,  -20.7,    1.7,  -18.3,  -19.6,  -16.1,  -14.7,  -14.4,   14.1,  -17.7,  -17.4,   14.8,  -13.6,  -17.2,  -41.4,   -0.6,   24.2,   24.6,   25.1,   12.1,   25.3,  999.0,  -21.0,  -42.2,  -31.3,  -42.0,  -21.2,  999.0
2000/12/08 20:30,  999.0,  999.0,  999.0,   11.7,   16.8,   19.2,   15.6,   16.3,   11.6,   11.5,   10.6,    7.3,   11.9,    6.4,    3.4,    5.0,    5.7,    4.9,    3.6,    3.7,    2.1,    1.8,    1.8,    3.0,    3.1,    2.2,    2.9,    3.2,    3.3,    1.7,    2.3,    2.2,    1.7,  999.0,  999.0,  -15.1,  999.0,  999.0,  -22.5,  -22.5,  999.0,  999.0,  -20.5,  -14.5,  -21.4,  -14.3,  -16.8,  -22.0,  -31.0,  -12.4,    7.6,  -18.6,    8.4,  -13.7,    9.1,    9.0,  -38.6,  -39.6
2000/12/08 20:40,  999.0,    8.4,   10.7,   11.6,   11.1,   10.7,    4.1,    8.9,    4.6,    6.0,    2.5,    3.6,    3.1,    2.6,  999.0,    2.1,    1.5,  999.0,   -3.0,  999.0,  999.0,  999.0,  999.0,  999.0,  999.0,  999.0,  999.0,  999.0,  999.0,  999.0,  999.0,  999.0,  -18.3,  999.0,  -22.2,  -21.8,  -21.9,  999.0,  -21.4,  -22.7,  -21.7,  999.0,  999.0,  -20.9,  -20.7,  -20.8,  999.0,  999.0,  999.0,  999.0,  999.0,  999.0,  999.0,  999.0,  999.0,  999.0,  999.0,  999.0
2000/12/08 20:50,  999.0,    9.4,   12.1,   12.3,   12.2,   10.9,   11.1,   11.1,    9.1,    5.5,  999.0,    4.3,    3.6,    3.7,  999.0,  999.0,  999.0,  999.0,  999.0,   -0.1,    0.8,    2.4,  999.0,  999.0,  999.0,    1.6,    2.8,  999.0,  999.0,  999.0,  999.0,  999.0,  999.0,  999.0,  -22.3,  999.0,  -22.5,  -22.2,  -23.4,  -22.9,  -22.1,  -22.2,  -21.4,  -21.8,  -20.3,  -19.4,  -21.8,  -20.7,  -20.7,  -20.6,  -20.0,  999.0,  999.0,  999.0,  999.0,  999.0,  999.0,  999.0
2000/12/08 21:00,  999.0,   10.4,   12.2,    3.6,    8.4,   14.5,   14.0,   10.7,    7.9,    6.1,    5.5,    3.6,  999.0,  999.0,    3.3,  999.0,    2.5,    2.6,    2.4,    3.5,    4.2,    4.6,    3.7,    3.3,    2.8,    0.7,    1.6,  999.0,  999.0,  999.0,  999.0,  999.0,  999.0,  999.0,  -18.8,  -21.2,  -20.4,  -21.0,  -21.3,  999.0,  -21.0,  999.0,  -20.5,  -20.8,  -21.4,  -20.7,  -20.5,  -20.6,  -20.6,  -20.6,  -20.1,  999.0,  -20.3,  -20.3,  -20.2,  -20.3,  -19.9,  -20.0
2000/12/08 21:10,  999.0,   11.0,   12.9,   12.5,   11.7,   12.6,   11.7,    8.8,    8.1,    5.6,    4.3,    3.9,    4.6,    3.5,    3.0,    2.3,    5.1,  999.0,    4.1,    4.6,    5.9,    5.6,    4.4,    4.8,    4.7,    4.2,    3.8,  999.0,  999.0,    1.3,    1.1,  999.0,  999.0,  999.0,  999.0,  -20.6,  -20.2,  -19.9,  999.0,  -20.5,  -20.6,  999.0,  -20.3,  -20.7,  -20.8,  -20.8,  -20.8,  -20.2,  -20.2,  -20.3,  -20.4,  -20.7,  -20.2,  -20.5,  -20.6,  -20.4,  -20.4,  999.0
2000/12/08 21:20,  999.0,   10.9,   12.1,    0.4,   -1.0,  999.0,   -1.7,    9.2,    8.2,    6.0,    5.2,    4.5,    3.8,    4.2,    5.3,    3.2,  999.0,  999.0,    4.9,    5.2,    5.9,    7.3,  999.0,  999.0,  999.0,  999.0,    2.8,    2.8,  999.0,  999.0,  999.0,  999.0,  999.0,  999.0,  -18.9,  -19.4,  999.0,  999.0,  -19.2,  -19.3,  -20.1,  -20.2,  -19.7,  999.0,  -19.3,  999.0,  -19.4,  999.0,  999.0,  999.0,  999.0,  999.0,  999.0,  999.0,  999.0,  999.0,  999.0,  999.0
2000/12/08 21:30,  999.0,  999.0,  999.0,   13.2,   13.7,   14.4,  999.0,   10.8,    8.2,    7.7,    5.4,    4.2,    3.8,    4.6,    6.5,    4.2,  999.0,  999.0,    4.1,    5.4,    3.8,   -5.1,  999.0,  999.0,  999.0,  999.0,  999.0,  999.0,  999.0,  999.0,  -14.1,  -13.4,  -11.4,  -11.9,  -11.7,   -6.6,  999.0,   -5.3,   -8.6,   -0.9,   -4.9,   -5.8,   -5.7,   -2.2,   -2.9,   -0.5,   -2.4,   -3.0,   -1.0,   -1.6,   -1.3,   -1.2,   -0.9,   -1.1,   -0.9,   -0.7,   -0.0,  999.0
2000/12/08 21:40,  999.0,  999.0,   12.3,   11.9,   14.8,   15.1,  999.0,    3.4,    9.1,    7.2,    5.4,    4.5,    3.1,    2.5,    2.4,    1.8,    2.2,    2.6,  999.0,    3.7,  999.0,  999.0,  999.0,  999.0,  999.0,  999.0,  999.0,  999.0,  999.0,  -15.1,  -11.4,  -14.2,  -12.2,   -9.9,  999.0,   -6.8,  -10.5,  999.0,   -9.3,   -1.2,   -3.8,   -4.9,   -3.1,   -3.2,  999.0,   -1.8,   -2.3,   -1.7,   -0.5,   -0.9,   -0.8,   -0.4,    0.3,   -0.6,   -0.7,   -0.7,   -0.7,   -0.5
2000/12/08 21:50,  999.0,  999.0,   10.1,   13.6,   13.0,  999.0,   12.9,  999.0,    8.1,    8.0,    6.7,    5.1,    4.1,    2.7,    3.2,    4.6,    3.8,    2.8,  999.0,  999.0,  999.0,  999.0,  999.0,  999.0,  999.0,  999.0,  -11.6,  -12.2,  999.0,  -10.4,  -12.5,  -11.2,   -8.4,   -5.9,  -11.3,   -7.3,   -4.5,   -3.6,   -4.2,   -3.8,   -1.0,   -1.1,   -2.1,   -1.6,   -1.6,   -1.2,   -1.0,   -0.6,   -0.7,   -0.9,   -0.8,   -0.6,   -0.6,   -1.0,   -0.6,   -0.6,   -0.7,   -0.7
2000/12/08 22:00,  999.0,    9.0,   10.0,   12.8,   13.0,   13.0,   11.8,   10.1,    9.4,    7.5,    6.7,    5.0,    3.8,    3.9,    3.5,    4.2,    3.9,    4.6,    3.9,  999.0,  999.0,  999.0,  999.0,  999.0,    4.0,  999.0,  -19.3,  999.0,   -5.2,   -9.7,   -4.2,   -3.9,    3.1,   -8.3,   -6.6,   -5.1,    0.4,   -3.4,   -3.5,    2.7,   -0.9,   13.0,   -4.4,    5.9,   -4.1,    3.3,   -0.6,  999.0,   -0.2,  999.0,   -0.5,   -0.6,  999.0,   -0.7,   -1.3,   -0.5,   -0.5,   -0.9
2000/12/08 22:10,  999.0,    9.3,   11.2,   13.2,   14.2,   15.1,   21.2,   10.0,   10.0,    9.3,    7.4,    6.6,    6.5,    2.6,    0.7,    9.0,   -3.8,    5.1,   -0.8,   -0.5,    1.8,    3.0,    4.1,    4.1,    4.7,    4.8,    5.0,    4.2,    3.2,    2.5,    3.1,    3.0,    4.1,    5.0,    4.5,    4.6,    5.1,    5.9,    6.5,    6.7,    7.1,    4.8,    6.1,   11.4,    8.4,   18.1,   12.5,    8.6,    6.6,  999.0,  999.0,  999.0,  999.0,  999.0,  999.0,  999.0,  999.0,  999.0
2000/12/08 22:20,  999.0,    7.0,   11.2,   13.9,   13.3,   14.0,   12.7,  999.0,   10.8,    9.1,    7.6,    6.5,    4.9,    3.5,    3.4,    3.2,    4.5,    3.9,    0.7,    4.0,    4.5,    3.8,    3.0,    0.1,    3.9,    3.5,    3.7,    1.8,   -1.6,    0.1,    1.1,    2.8,    3.6,    5.0,    5.9,    6.9,    8.2,    8.4,    8.3,    9.1,    9.4,    8.4,    9.3,    9.7,  999.0,  999.0,  999.0,  999.0,  999.0,  999.0,  999.0,  999.0,  999.0,  999.0,  999.0,  999.0,  999.0,  999.0
2000/12/08 22:30,  999.0,    8.5,   10.8,   12.4,   17.6,   14.0,   13.0,   12.7,  999.0,    8.7,    7.6,    7.5,    5.8,    3.8,    3.2,    2.8,    3.0,    5.3,    3.6,    3.9,    1.1,    3.8,  999.0,    1.2,   -1.2,  999.0,  999.0,   -4.8,  999.0,  999.0,  999.0,  999.0,  999.0,  999.0,  999.0,   -5.6,   -8.1,  999.0,   -7.7,  999.0,  999.0,  999.0,  999.0,  -12.4,  -10.9,   -9.4,  999.0,  999.0,  999.0,  999.0,  999.0,  -11.7,  999.0,  -11.2,  999.0,  -11.9,  999.0,  -11.5
2000/12/08 22:40,  999.0,  999.0,   10.7,   11.3,   12.8,   14.6,   12.9,   13.0,    8.7,    7.2,    7.9,    7.0,    5.1,    2.2,    1.2,    1.4,    1.5,  999.0,   -0.9,    0.9,    0.9,   -2.3,   -3.4,   -1.7,   -3.3,   -3.0,   -3.8,   -3.7,   -3.8,   -4.8,   -5.7,   -3.7,  999.0,  999.0,  999.0,  999.0,  999.0,  999.0,  999.0,  999.0,  999.0,  999.0,  999.0,   -8.4,   -8.1,  999.0,  999.0,  999.0,  999.0,  -10.2,  999.0,  999.0,  -11.4,  -12.2,  999.0,  999.0,  999.0,  -11.9
2000/12/08 22:50,  999.0,  999.0,  999.0,   11.7,   12.1,   13.4,   11.6,  999.0,  999.0,  999.0,    7.4,    5.6,    4.5,    3.3,    2.3,    1.5,    1.9,   -0.4,    0.8,  999.0,  999.0,   -1.7,   -1.0,  999.0,   -4.5,  999.0,  999.0,  999.0,  999.0,  999.0,   -1.9,  999.0,  -10.2,  999.0,  999.0,  999.0,  999.0,  999.0,  999.0,  999.0,  999.0,   -5.3,  999.0,  -11.3,  999.0,  999.0,  999.0,  999.0,  999.0,  -13.7,  -13.5,  999.0,  999.0,  999.0,  999.0,  999.0,  999.0,  999.0
2000/12/08 23:00,  999.0,  999.0,   11.1,   12.4,   12.4,   12.7,  999.0,   10.3,  999.0,  999.0,    7.1,    5.7,    5.1,    3.3,    1.6,    1.7,    0.5,    1.2,  999.0,  999.0,   -2.9,   -2.9,   -4.2,   -6.3,  999.0,  999.0,   -5.2,  999.0,   -6.9,  999.0,   -9.6,  999.0,  999.0,  999.0,  999.0,  -12.5,  999.0,  999.0,  999.0,  999.0,  999.0,  -13.7,  -14.3,  999.0,  999.0,  -14.7,  -14.8,  999.0,  999.0,  999.0,  999.0,  999.0,  -14.2,  999.0,  -13.4,  -13.6,  -13.3,  -13.1
2000/12/08 23:10,  999.0,    5.4,   10.0,   11.7,   12.6,   12.5,  999.0,    9.9,   11.8,   10.2,  999.0,    5.8,    4.7,  999.0,    2.0,    1.6,    0.5,  999.0,  999.0,  999.0,   -2.4,   -3.5,   -3.9,   -6.6,   -5.9,   -4.9,   -5.8,   -8.4,  999.0,  999.0,  999.0,  999.0,  999.0,  999.0,  999.0,  999.0,  999.0,  999.0,  999.0,  999.0,  999.0,  999.0,  999.0,  999.0,  999.0,  999.0,  -14.0,  999.0,  999.0,  999.0,  999.0,  999.0,  999.0,  999.0,  999.0,  999.0,  999.0,  999.0
2000/12/08 23:20,  999.0,    8.7,   10.9,   10.8,   11.9,   12.2,   11.8,   12.0,   16.2,    8.2,    8.0,  999.0,   13.2,    4.4,   11.9,    2.3,    2.1,  999.0,    2.2,    0.0,    0.3,    0.8,   -3.5,  999.0,  999.0,  999.0,    5.0,   -6.0,   -2.9,   -7.2,  999.0,  999.0,  999.0,  999.0,   -1.0,  999.0,  999.0,  -17.3,  999.0,  999.0,  999.0,  -41.5,  999.0,  -41.8,  -42.1,  -40.7,  -41.5,  -41.8,  -41.5,  -42.4,  -41.6,  -41.7,  -42.0,  -42.1,  -40.9,  -41.9,  -40.7,  -41.9
2000/12/08 23:30,  999.0,    8.0,    8.9,   10.2,   13.1,   12.6,   12.7,   10.8,    9.7,  999.0,   10.9,    8.1,    6.7,    5.7,    4.7,  999.0,  999.0,  999.0,  999.0,  999.0,   -2.3,   -2.6,   -3.2,  999.0,  999.0,  999.0,  999.0,  999.0,  -14.4,  999.0,  999.0,  -22.7,  999.0,  999.0,  999.0,  999.0,  999.0,  999.0,  999.0,  -40.6,  -41.1,  -41.5,  -41.7,  -41.5,  -41.7,  -41.6,  -41.4,  -41.8,  -41.4,  -41.6,  -43.2,  -42.9,  -41.8,  -41.6,  -41.5,  -41.4,  -41.9,  -41.7
2000/12/08 23:40,  999.0,   14.0,    8.9,   10.3,   12.9,   12.7,   11.6,   13.0,   10.6,  999.0,  999.0,  999.0,  999.0,  999.0,  999.0,    2.7,  999.0,  999.0,  999.0,  999.0,  999.0,  -11.1,  999.0,  -12.0,  999.0,  999.0,  999.0,  999.0,  999.0,  999.0,  999.0,  999.0,  -36.4,  999.0,  999.0,  -39.3,  -39.0,  -41.0,  -41.3,  999.0,  -41.6,  -41.6,  -41.7,  999.0,  -41.3,  -42.0,  -41.6,  -41.4,  -41.4,  -42.2,  -41.6,  -42.0,  -41.7,  -41.7,  -42.6,  -41.1,  -41.6,  -41.7
2000/12/08 23:50,  999.0,  999.0,   10.2,   10.7,   11.7,   12.2,   11.6,   10.8,   10.7,   10.2,  999.0,  999.0,    6.0,    5.1,    3.7,    4.3,   -1.8,   -2.2,   -5.9,   -7.0,   -1.8,  999.0,  999.0,  999.0,  999.0,  999.0,  999.0,  999.0,  999.0,  999.0,  999.0,  999.0,  -41.6,  -39.6,  999.0,  999.0,  -40.9,  -41.0,  -40.0,  -42.3,  -41.2,  -41.9,  -41.8,  -42.0,  -42.3,  -42.0,  -41.9,  -41.9,  999.0,  -42.0,  -42.2,  -41.8,  -42.8,  -41.4,  -42.3,  -42.2,  -41.8,  -42.0
